                ,  0.290,  0.386,  0.483,  0.580,  0.676,  0.773,  0.869,  0.966,  1.063,  1.159,  1.256,  1.352,  1.449,  1.545,  1.642,  1.739,  1.835,  1.932,  2.028,  2.125,  2.222,  2.318,  2.415,  2.511,  2.608,  2.705,  2.801,  2.898,  2.994,  3.091,  3.188,  3.284,  3.381,  3.477,  3.574,  3.671,  3.767,  3.864,  3.960,  4.057,  4.153,  4.250,  4.347,  4.443,  4.540,  4.636,  4.733,  4.830,  4.926,  5.023,  5.119,  5.216,  5.313,  5.409,  5.506,  5.602,  5.699,  5.796
2000/12/10 00:00,  999.0,    6.9,    3.9,    4.1,    3.3,    2.9,    2.3,    1.2,    0.7,   -0.8,   -0.9,  999.0,  999.0,   -6.4,  999.0,  999.0,  999.0,  999.0,  999.0,  999.0,  999.0,  999.0,  999.0,  999.0,  999.0,  999.0,  999.0,  999.0,  999.0,  999.0,  999.0,  999.0,  999.0,  999.0,   16.3,  999.0,  999.0,  999.0,  999.0,  999.0,  999.0,  999.0,  999.0,  999.0,  999.0,  999.0,  999.0,  999.0,  999.0,  999.0,  999.0,  999.0,  999.0,  999.0,  999.0,  999.0,  999.0,  999.0
2000/12/10 00:10,  999.0,    4.4,    5.1,    4.8,    3.9,    4.8,    2.7,    1.9,    0.6,   -0.4,   -3.8,   -2.7,   -7.3,   -8.0,   -6.6,   -5.0,   -3.8,    3.4,  999.0,  999.0,  999.0,  999.0,  999.0,  999.0,  999.0,    9.4,  999.0,   12.4,  999.0,  999.0,  999.0,   21.9,  999.0,  999.0,  999.0,  999.0,  999.0,  999.0,   20.5,   18.3,  999.0,  999.0,  999.0,  999.0,   19.1,   19.2,   19.3,  999.0,  999.0,  999.0,   -0.6,   -0.8,   -0.9,   -0.9,   -1.8,   -1.0,   -1.4,  999.0
2000/12/10 00:20,  999.0,    4.6,    4.4,    4.0,    3.7,    3.7,    3.5,    2.8,    0.6,   -2.7,   -5.3,   -6.2,   -4.8,   -5.4,  999.0,  999.0,   -2.2,   -0.5,  999.0,  999.0,  999.0,  999.0,  999.0,   10.6,   12.0,   12.2,   16.1,   17.3,   18.5,  999.0,   22.8,   22.0,  999.0,  999.0,  999.0,  999.0,  999.0,   18.7,  999.0,   17.8,   15.0,   15.8,   16.2,   17.6,   17.9,   18.3,  999.0,  999.0,  999.0,   -1.1,   -0.8,   -0.9,   -0.3,   -0.7,  999.0,   -0.9,   -0.5,   -0.4
2000/12/10 00:30,  999.0,    2.9,    4.2,    3.1,    3.4,    3.2,    3.1,    2.7,    2.8,    2.0,    0.1,   -1.2,   -1.9,   -3.4,  999.0,  999.0,  999.0,  999.0,  999.0,  999.0,  999.0,  999.0,    5.9,    8.4,    9.7,   11.1,   13.4,  999.0,  999.0,  999.0,  999.0,  999.0,  999.0,  999.0,  999.0,   20.4,  999.0,   13.7,  999.0,  999.0,  999.0,  999.0,   17.9,  999.0,  999.0,  999.0,  999.0,  999.0,   -0.1,    0.1,  999.0,   -0.9,   -0.6,   -0.5,   -0.4,   -1.4,   -0.5,   -1.2
2000/12/10 00:40,  999.0,    2.6,    2.9,    4.0,    2.1,    2.5,    1.0,    1.5,    1.2,    1.0,   -0.5,   -2.3,   -2.6,   -4.1,  999.0,  999.0,  999.0,  999.0,  999.0,  999.0,  999.0,  999.0,    7.4,    9.7,   10.9,   13.4,   14.9,   15.3,  999.0,  999.0,   22.8,   24.3,   21.3,  999.0,  999.0,  999.0,  999.0,  999.0,  999.0,  999.0,  999.0,  999.0,  999.0,  999.0,  999.0,  999.0,  999.0,   -0.8,   -1.2,   -1.1,   -1.3,   -0.3,   -0.7,   -1.2,   -1.4,   -0.9,   -0.6,   -0.7
2000/12/10 00:50,  999.0,    4.9,    2.4,    3.0,    3.8,    2.6,    1.7,    2.7,    1.1,    0.8,    0.3,   -3.4,   -1.6,   -2.8,   -3.7,  999.0,   -1.0,  999.0,  999.0,  999.0,  999.0,  999.0,   10.6,   10.9,   11.5,   13.3,   13.6,  999.0,   20.0,  999.0,  999.0,  999.0,  999.0,  999.0,  999.0,  999.0,  999.0,  999.0,  999.0,  999.0,  999.0,  999.0,  999.0,  999.0,  999.0,   -0.7,   -0.9,   -0.9,   -0.8,   -0.2,   -0.6,   -0.7,   -0.3,  999.0,   -0.7,   -1.0,   -1.0,   -1.0
2000/12/10 01:00,  999.0,    1.4,    2.2,    3.9,    3.7,    3.3,    3.6,    1.6,    1.5,   -1.2,    1.0,   -0.3,   -0.5,   -0.6,   -1.7,   -2.7,  999.0,  999.0,    1.9,  999.0,    3.1,    7.1,    7.5,    8.4,   10.1,   10.3,   11.6,   13.2,  999.0,   15.4,  999.0,  999.0,  999.0,  999.0,  999.0,  999.0,  999.0,  999.0,  999.0,  999.0,    9.5,   -0.4,   -1.0,  999.0,   -0.3,    0.0,   -0.5,   -0.2,   -0.6,   -0.6,   -1.3,   -0.5,   -0.9,   -0.7,   -0.6,  999.0,   -0.4,   -0.5
2000/12/10 01:10,  999.0,    2.6,    3.7,    4.5,    5.0,    3.7,    1.5,    1.7,    0.3,    1.3,    0.8,   -0.6,   -0.8,   -2.2,   -2.2,   -1.8,   -1.2,   -0.4,   -1.4,    1.6,    3.8,    6.3,   10.5,   11.2,   12.5,   14.6,  999.0,  999.0,  999.0,  999.0,  999.0,  999.0,  999.0,  999.0,  999.0,    0.2,  999.0,  999.0,  999.0,   -0.9,  999.0,  999.0,   -1.3,   -1.2,  999.0,  999.0,   -1.2,  999.0,   -0.2,   -1.1,  999.0,   -1.0,  999.0,   -1.0,   -1.0,   -0.4,   -0.7,  999.0
2000/12/10 01:20,  999.0,    1.2,    2.1,    4.1,    4.0,    2.7,    2.3,    1.7,    1.5,    0.4,    0.1,   -1.1,   -0.9,   -1.4,   -2.4,   -2.3,   -0.5,    3.4,  999.0,   -4.6,  999.0,    5.0,  999.0,    9.8,  999.0,  999.0,   -5.0,   -3.3,   -0.7,  999.0,   -0.8,   -1.1,   -1.1,   -1.4,   -0.9,   -1.1,   -0.9,   -0.1,  999.0,   -0.8,   -1.1,   -1.0,   -0.8,   -0.7,   -0.3,   -1.1,   -0.9,   -0.9,   -0.7,   -0.3,   -0.1,   -0.4,   -0.5,   -0.7,   -0.7,  999.0,   -0.7,   -1.6
2000/12/10 01:30,  999.0,    3.1,    3.1,    5.4,    4.1,    3.0,    1.2,    2.1,   -2.1,   -1.8,   -2.1,   -1.4,   -1.3,   -2.4,   -1.8,   -1.0,   -0.9,   -3.0,    3.6,  999.0,  999.0,  999.0,  999.0,  999.0,  999.0,   -5.5,   -7.0,  999.0,  999.0,   -2.8,   -0.8,   -1.2,   -1.1,   -1.0,  999.0,   -1.0,  999.0,  999.0,   -0.8,   -0.3,   -1.4,   -0.8,   -1.4,  999.0,   -0.2,   -0.6,   -0.4,   -1.0,   -0.5,   -0.2,   -0.9,   -1.2,   -0.6,   -1.0,   -1.0,  999.0,   -0.8,   -1.7
2000/12/10 01:40,  999.0,    2.3,    2.9,    4.4,    3.7,    3.4,    1.3,    1.2,    0.9,   -1.1,   -3.5,   -1.4,   -1.3,   -1.5,   -1.5,   -1.8,   -1.7,   -1.1,   -3.5,   -1.0,   -2.2,    0.3,  999.0,  999.0,  999.0,   -9.2,   -6.5,   -5.2,  999.0,   -1.7,   -0.7,   -1.2,   -1.0,   -1.0,   -1.2,   -0.8,   -0.7,   -0.5,   -0.9,   -1.1,   -1.0,   -1.2,   -1.1,   -0.8,   -0.8,   -0.7,   -1.4,   -0.9,   -0.6,  999.0,   -0.8,   -1.1,   -0.3,   -0.7,   -0.7,   -0.7,   -0.9,   -0.8
2000/12/10 01:50,  999.0,    5.0,    5.6,    3.3,    5.6,    5.1,    3.5,    1.5,   -0.7,   -0.0,   -2.7,   -4.0,  999.0,   -0.3,  999.0,   -0.5,   -1.3,   -0.5,    0.5,    0.9,    1.4,    2.2,  999.0,  999.0,    9.7,  999.0,  999.0,   -4.1,   -2.3,   -1.0,   -1.0,   -0.6,   -0.7,    6.8,   10.2,    7.4,   -0.3,   -0.6,   -0.8,   -0.8,  999.0,   -1.1,   -0.7,   -1.2,  999.0,   -0.3,   -0.8,  999.0,   -0.5,   -1.0,  999.0,   -1.0,   -0.3,   -1.2,   -1.1,   -0.7,   -1.0,   -0.3
2000/12/10 02:00,  999.0,    4.5,    4.2,    4.9,    5.9,    4.8,    4.3,    6.7,    1.1,   -0.2,   -0.3,   -0.9,   -0.1,   -5.1,  999.0,  999.0,   -0.9,   -0.4,   -0.6,   -0.5,    0.9,  999.0,  999.0,  999.0,  999.0,  999.0,  999.0,  999.0,  999.0,  999.0,  999.0,  999.0,   -1.0,   -0.4,   -0.6,   -0.5,   -0.4,   -0.5,   -0.6,   -1.0,   -1.2,   -0.9,   -0.7,  999.0,   -0.8,   -0.6,   -0.5,   -0.5,   -0.6,   -0.5,  999.0,  999.0,   -0.9,   -1.2,   -1.2,   -0.6,   -1.2,   -0.8
2000/12/10 02:10,  999.0,    3.7,    5.5,    1.7,    4.9,    3.1,    2.5,    1.2,    2.6,   -0.2,   -0.2,   -1.2,   -5.3,   -6.9,   -4.3,   -5.8,   -4.7,   -4.3,   -4.5,   -4.1,   -3.4,   -2.6,   -1.4,    0.9,   -1.6,    3.5,    5.0,   -1.9,    4.7,    1.8,  999.0,  999.0,   -2.6,   -0.7,   -1.2,   -1.0,   -0.8,   -0.7,    4.5,   -0.9,   -0.6,   -0.6,   -0.8,   -1.0,   -1.2,   -0.9,   -0.8,   -1.4,   -0.5,   -0.4,  999.0,   -0.7,   -1.1,   -0.9,   -0.8,   -1.1,    9.7,   20.9
2000/12/10 02:20,  999.0,    2.9,    3.5,    3.6,    3.0,    1.7,    1.3,   -1.0,    0.5,   -3.9,   -2.6,   -1.0,   -1.7,  999.0,  999.0,  999.0,  999.0,  999.0,  999.0,  999.0,  999.0,  999.0,  999.0,  999.0,  999.0,  999.0,  999.0,  999.0,   -2.0,  999.0,  999.0,   -0.9,   -0.5,   -0.5,   -0.2,  999.0,   -0.4,   -0.6,   -0.6,   -1.5,   -0.5,   -0.8,   -0.4,   -0.9,   -0.8,   -1.4,   -0.8,   -1.0,   -0.9,   -1.0,  999.0,   -0.6,   -0.5,   -0.6,   -0.6,   -0.8,   -1.1,   -1.2
2000/12/10 02:30,  999.0,    3.1,    3.6,    4.7,    5.1,    2.7,    2.1,    1.6,    0.0,   -1.0,   -2.7,   -3.4,   -6.2,   -8.9,  -11.6,  999.0,  999.0,  999.0,  999.0,  999.0,  999.0,  999.0,   -9.7,   -9.4,   -7.6,   -6.5,   -1.9,  999.0,    8.1,   -1.2,   -1.8,   -1.1,    6.0,   -0.4,   -1.0,   -0.8,   -1.3,   -0.6,   -0.4,  999.0,   -0.9,   -0.6,  999.0,   -0.3,   -0.3,    0.2,   -0.4,   -0.2,   -0.3,   -0.6,   -0.2,   -0.8,   -0.9,  999.0,   -0.8,   -0.9,   -1.9,   -0.8
2000/12/10 02:40,  999.0,    4.5,    5.2,    4.9,    4.9,    3.6,    2.5,    2.0,   -0.7,   -2.3,   -1.3,   -7.6,  999.0,  999.0,  999.0,  999.0,   -0.8,  999.0,  999.0,  999.0,  999.0,  999.0,  999.0,  999.0,  999.0,  999.0,  999.0,  999.0,    5.4,   14.5,  999.0,  999.0,  999.0,  999.0,  999.0,  999.0,  999.0,  999.0,  999.0,  999.0,  999.0,  999.0,  999.0,  999.0,  999.0,  999.0,  999.0,  999.0,  999.0,  999.0,  999.0,  999.0,  999.0,  999.0,  999.0,  999.0,  999.0,  999.0
2000/12/10 02:50,  999.0,    2.9,    0.4,    3.6,    4.1,    2.1,    1.3,    1.8,    1.1,  999.0,   -1.8,   -2.0,   -2.9,  999.0,    0.9,  999.0,  999.0,  999.0,  999.0,   -2.0,  999.0,    5.7,  999.0,  999.0,  999.0,  999.0,  999.0,   16.1,   15.7,  999.0,  999.0,  999.0,  999.0,  999.0,  999.0,  999.0,   18.3,  999.0,  999.0,  999.0,  999.0,   17.8,  999.0,  999.0,  999.0,  999.0,  999.0,   18.7,  999.0,  999.0,  999.0,  999.0,  999.0,  999.0,  999.0,  999.0,  999.0,  999.0
2000/12/10 03:00,  999.0,    2.3,    1.8,    2.2,    2.2,    1.9,    0.9,    0.4,   -0.3,   -1.3,  999.0,   -2.2,    1.3,  999.0,  999.0,  999.0,  999.0,  999.0,  999.0,   -0.1,  999.0,  999.0,  999.0,    3.0,  999.0,  999.0,  999.0,  999.0,  999.0,  999.0,  999.0,   19.3,   17.5,   18.2,  999.0,  999.0,  999.0,  999.0,  999.0,  999.0,   20.3,  999.0,  999.0,  999.0,   -0.9,  999.0,  999.0,  999.0,  999.0,   -0.7,  999.0,   -1.1,   -1.3,  999.0,  999.0,  999.0,   11.3,  999.0
2000/12/10 03:10,  999.0,    2.0,    2.0,    2.3,    2.4,    2.2,    1.8,    2.3,    1.0,   -0.6,   -2.3,   -5.3,  999.0,   -8.7,  999.0,   -3.3,  999.0,  999.0,  999.0,  999.0,  999.0,  999.0,  999.0,  999.0,  999.0,  999.0,  999.0,  999.0,  999.0,   24.2,  999.0,  999.0,   22.6,   21.9,   21.2,  999.0,  999.0,  999.0,  999.0,  999.0,   20.8,  999.0,  999.0,  999.0,   23.4,  999.0,  999.0,  999.0,  999.0,  999.0,  999.0,  999.0,  999.0,  999.0,  999.0,  999.0,  999.0,  999.0
2000/12/10 03:20,  999.0,    2.5,    1.8,    1.5,    2.4,    2.8,    1.7,    1.2,    0.2,   -0.9,   -2.9,   -3.1,   -2.1,   -1.5,   -2.5,  999.0,  999.0,  999.0,   -1.9,  999.0,  999.0,  999.0,  999.0,  999.0,  999.0,  999.0,  999.0,   13.7,  999.0,  999.0,   16.1,   17.1,   20.0,   19.7,   21.4,  999.0,  999.0,  999.0,  999.0,  999.0,  999.0,  999.0,  999.0,  999.0,  999.0,  999.0,  999.0,  999.0,  999.0,  999.0,  999.0,  999.0,  999.0,  999.0,  999.0,  999.0,  999.0,  999.0
2000/12/10 03:30,  999.0,    1.3,    1.2,    1.0,    2.0,    2.1,    1.3,    2.0,    3.2,   -1.0,   -2.6,   -1.5,  999.0,  999.0,   -5.1,   -4.9,   -5.1,   -3.3,   -1.8,    0.1,   -0.7,  999.0,  999.0,  999.0,  999.0,  999.0,   13.8,  999.0,  999.0,  999.0,  999.0,  999.0,  999.0,  999.0,  999.0,  999.0,  999.0,  999.0,  999.0,  999.0,  999.0,  999.0,  999.0,  999.0,  999.0,  999.0,  999.0,  999.0,  999.0,  999.0,  999.0,  999.0,  999.0,  999.0,  999.0,  999.0,  999.0,  999.0
2000/12/10 03:40,  999.0,    3.3,    3.5,    2.9,    3.2,    2.3,    2.5,    1.1,   -0.3,   -1.7,   -0.8,   -3.3,    1.1,   -2.4,   -4.1,   -4.2,   -2.2,   -2.2,   -0.3,    1.6,  999.0,  999.0,  999.0,  999.0,  999.0,  999.0,  999.0,  999.0,  999.0,  999.0,  999.0,  999.0,  999.0,  999.0,  999.0,  999.0,   20.6,   18.7,   19.4,  999.0,   18.8,   18.8,  999.0,  999.0,  999.0,  999.0,  999.0,  999.0,  999.0,  999.0,  999.0,  999.0,  999.0,   20.8,  999.0,  999.0,  999.0,  999.0
2000/12/10 03:50,  999.0,    2.1,    3.4,    3.1,    2.6,    1.6,   -0.3,   -1.0,   -4.2,   -3.5,   -3.6,   -4.3,   -3.0,  999.0,   -0.9,   -0.3,   -0.8,  999.0,    0.6,    2.9,  999.0,  999.0,  999.0,  999.0,  999.0,  999.0,  999.0,  999.0,  999.0,  999.0,  999.0,  999.0,   21.2,  999.0,  999.0,  999.0,  999.0,  999.0,  999.0,  999.0,  999.0,  999.0,  999.0,  999.0,  999.0,  999.0,  999.0,  999.0,  999.0,  999.0,  999.0,  999.0,  999.0,  999.0,  999.0,  999.0,  999.0,  999.0
2000/12/10 04:00,  999.0,    3.4,    2.7,    3.5,    2.6,    2.3,    1.2,    0.5,   -0.6,   -2.2,   -2.6,   -3.5,   -1.7,    0.7,    0.1,    1.7,    2.1,    6.0,  999.0,  999.0,  999.0,  999.0,  999.0,  999.0,  999.0,  999.0,  999.0,  999.0,   23.4,  999.0,  999.0,  999.0,  999.0,  999.0,  999.0,  999.0,  999.0,  999.0,  999.0,  999.0,  999.0,  999.0,  999.0,  999.0,  999.0,  999.0,  999.0,  999.0,  999.0,  999.0,  999.0,  999.0,  999.0,  999.0,  999.0,  999.0,  999.0,  999.0
2000/12/10 04:10,  999.0,    2.4,    2.2,    2.1,    0.9,    1.0,   -0.9,    0.2,   -3.6,   -4.0,   -4.1,  999.0,   -1.6,  999.0,  999.0,  999.0,    2.0,  999.0,  999.0,  999.0,  999.0,  999.0,  999.0,  999.0,  999.0,  999.0,  999.0,  999.0,  999.0,  999.0,  999.0,  999.0,  999.0,  999.0,  999.0,  999.0,  999.0,  999.0,  999.0,  999.0,  999.0,  999.0,  999.0,  999.0,  999.0,  999.0,  999.0,  999.0,  999.0,  999.0,  999.0,  999.0,  999.0,  999.0,  999.0,  999.0,  999.0,  999.0
2000/12/10 04:20,  999.0,    1.3,    2.7,    3.9,    2.9,    1.9,    1.8,    0.9,   -0.9,   -3.3,   -4.4,   -5.6,   -0.8,  999.0,  999.0,  999.0,  999.0,  999.0,  999.0,  999.0,  999.0,   26.9,  999.0,   28.0,  999.0,  999.0,  999.0,  999.0,  999.0,  999.0,  999.0,  999.0,  999.0,  999.0,  999.0,  999.0,  999.0,  999.0,  999.0,  999.0,  999.0,  999.0,  999.0,  999.0,  999.0,  999.0,  999.0,  999.0,  999.0,  999.0,  999.0,  999.0,  999.0,  999.0,  999.0,  999.0,  999.0,  999.0
2000/12/10 04:30,  999.0,    4.5,    3.8,    2.5,    0.5,    2.1,    1.2,   -2.1,   -3.4,   -3.7,   -4.5,   -2.6,   -0.2,   -1.5,  999.0,  999.0,   -1.0,   10.8,    8.6,   -1.6,   23.6,   26.4,   28.3,   29.8,  999.0,  999.0,  999.0,  999.0,  999.0,  999.0,  999.0,  999.0,  999.0,  999.0,  999.0,  999.0,  999.0,   22.3,   22.2,  999.0,  999.0,  999.0,  999.0,  999.0,  999.0,  999.0,  999.0,  999.0,  999.0,  999.0,  999.0,  999.0,  999.0,  999.0,  999.0,  999.0,  999.0,  999.0
2000/12/10 04:40,  999.0,    3.8,    3.1,    4.2,    2.8,    2.1,    1.6,    0.4,   -1.1,   -2.0,   -2.8,   -0.3,   -7.1,    2.3,  999.0,  999.0,  999.0,   22.1,   23.3,   28.4,   26.8,   27.0,   26.1,  999.0,   27.7,  999.0,  999.0,   27.9,  999.0,  999.0,  999.0,  999.0,   21.4,  999.0,  999.0,  999.0,  999.0,  999.0,  999.0,  999.0,  999.0,  999.0,  999.0,  999.0,  999.0,  999.0,  999.0,  999.0,  999.0,  999.0,  999.0,  999.0,  999.0,  999.0,  999.0,  999.0,  999.0,  999.0
2000/12/10 04:50,  999.0,    2.8,    2.1,    2.3,    1.5,    1.6,    0.1,    1.2,   -0.4,   -2.2,   -2.5,   -2.3,  999.0,   -0.4,   -1.2,    1.1,    4.5,   15.6,   24.2,   18.7,   29.8,  999.0,   29.6,  999.0,  999.0,  999.0,  999.0,  999.0,  999.0,  999.0,  999.0,  999.0,  999.0,  999.0,  999.0,  999.0,  999.0,  999.0,  999.0,  999.0,  999.0,  999.0,  999.0,  999.0,  999.0,  999.0,  999.0,  999.0,  999.0,  999.0,  999.0,  999.0,  999.0,  999.0,  999.0,  999.0,  999.0,  999.0
2000/12/10 05:00,  999.0,    2.0,    1.1,    2.9,    4.9,    2.6,    1.7,    1.1,    1.3,    1.6,    0.2,   -2.2,  999.0,    2.5,  999.0,  999.0,  999.0,   21.8,   24.0,   24.8,   26.1,   27.6,   29.4,   29.7,  999.0,  999.0,  999.0,  999.0,  999.0,  999.0,  999.0,  999.0,  999.0,  999.0,  999.0,  999.0,  999.0,  999.0,  999.0,  999.0,  999.0,  999.0,  999.0,  999.0,  999.0,  999.0,  999.0,  999.0,  999.0,  999.0,  999.0,  999.0,  999.0,  999.0,  999.0,  999.0,  999.0,  999.0
2000/12/10 05:10,  999.0,    3.1,    3.3,    4.1,    3.1,    3.0,    3.8,    0.9,    3.2,  999.0,   -3.0,    2.7,   -0.3,   -1.5,   -0.4,   -0.7,  999.0,  999.0,   -3.8,    5.1,  999.0,  999.0,  999.0,  999.0,  999.0,  999.0,  999.0,  999.0,  999.0,  999.0,  999.0,  999.0,  999.0,  999.0,  999.0,  999.0,  999.0,   22.4,   23.0,   22.0,   23.5,   23.4,   22.4,  999.0,  999.0,   22.8,  999.0,  999.0,  999.0,  999.0,  999.0,   -0.1,  999.0,  999.0,  999.0,  999.0,   -1.0,  999.0
2000/12/10 05:20,  999.0,  999.0,  999.0,  999.0,  999.0,  999.0,    1.9,  999.0,    0.1,    2.3,    1.3,   -0.8,   -2.0,   -1.7,  999.0,  999.0,  999.0,  999.0,  999.0,  999.0,  999.0,  999.0,  999.0,  999.0,  999.0,  999.0,  999.0,  999.0,  999.0,  999.0,  999.0,  999.0,   21.6,  999.0,  999.0,  999.0,  999.0,  999.0,  999.0,  999.0,  999.0,  999.0,   22.8,   21.1,  999.0,  999.0,  999.0,  999.0,  999.0,  999.0,  999.0,  999.0,  999.0,  999.0,  999.0,  999.0,  999.0,  999.0
2000/12/10 05:30,  999.0,  999.0,  999.0,  999.0,  999.0,  999.0,    1.3,    0.6,    0.3,   -0.3,   -0.8,   -0.7,   -3.6,  999.0,   -4.7,  999.0,  999.0,  999.0,  999.0,  999.0,  999.0,  999.0,  999.0,  999.0,  999.0,  999.0,  999.0,  999.0,  999.0,  999.0,  999.0,  999.0,  999.0,  999.0,  999.0,  999.0,  999.0,  999.0,  999.0,  999.0,  999.0,  999.0,  999.0,  999.0,  999.0,  999.0,  999.0,  999.0,  999.0,  999.0,  999.0,  999.0,  999.0,  999.0,  999.0,  999.0,  999.0,  999.0
2000/12/10 05:40,  999.0,  999.0,  999.0,    0.2,    3.3,    1.7,    0.4,   -0.0,    0.0,   -0.7,   -0.7,   -0.3,   -0.6,   -1.0,  999.0,  999.0,  999.0,  999.0,   24.4,   26.9,  999.0,  999.0,  999.0,  999.0,  999.0,  999.0,  999.0,  999.0,  999.0,   24.4,  999.0,  999.0,  999.0,   20.5,  999.0,  999.0,  999.0,  999.0,  999.0,   22.3,  999.0,  999.0,  999.0,  999.0,  999.0,  999.0,  999.0,  999.0,  999.0,   20.4,  999.0,  999.0,  999.0,  999.0,  999.0,  999.0,  999.0,  999.0
2000/12/10 05:50,  999.0,    2.2,    3.9,    4.0,    1.6,    1.2,    0.4,   -0.1,   -1.2,   -0.8,   -0.6,   -0.9,   -0.4,   -0.6,   -1.5,   -8.7,   -7.2,   -5.7,   -4.0,  999.0,   13.8,    4.3,   17.3,   19.0,   20.9,   12.3,   10.9,   13.2,   15.3,  999.0,  999.0,  999.0,  999.0,  999.0,  999.0,   16.9,  999.0,   18.2,   19.3,   21.4,   22.6,   22.2,   22.8,   20.7,   20.6,   21.0,   21.2,  999.0,  999.0,   -0.6,   -1.0,   -0.6,  999.0,   -0.8,   -0.6,  999.0,   -1.2,  999.0
2000/12/10 06:00,  999.0,    6.1,    3.9,    3.4,    4.4,    3.2,    2.4,    2.5,    2.1,    0.3,   -1.6,   -2.1,   -0.7,   -0.6,   -4.3,   -4.4,   -3.8,  999.0,    1.0,    2.1,  999.0,    1.4,    3.4,    8.0,    9.3,   10.7,   12.1,   11.9,   13.2,   15.2,   16.7,   17.5,   18.1,   18.1,   18.0,   18.7,   17.6,  999.0,   19.7,   21.8,   20.4,  999.0,   18.2,   24.7,   20.7,  999.0,  999.0,  999.0,  999.0,   -0.6,  999.0,   -0.8,   -1.3,  999.0,   -0.9,   -0.9,   -1.0,   -1.3
2000/12/10 06:10,  999.0,  999.0,  999.0,    4.9,    3.8,    4.9,    1.6,    2.0,    2.1,    0.8,   -0.0,   -1.2,   -2.3,   -1.9,   -0.4,   -2.3,   -3.9,  999.0,  999.0,  999.0,   -1.0,  999.0,  999.0,  999.0,    6.1,  999.0,  999.0,    4.5,    6.5,    7.1,    2.2,    3.1,    0.4,   -0.4,   -0.4,    5.9,    6.8,   -0.1,    9.4,   14.0,   19.6,   19.9,   21.1,   21.6,   21.3,  999.0,  999.0,  999.0,  999.0,  999.0,  999.0,  999.0,   20.3,  999.0,  999.0,  999.0,  999.0,  999.0
2000/12/10 06:20,  999.0,  999.0,    2.6,    3.0,    1.2,    0.6,    0.4,    0.2,   -0.6,   -0.9,   -3.7,   -4.4,   -1.7,   -3.3,   -2.9,   -2.3,   -7.8,  999.0,  999.0,  999.0,  999.0,  999.0,  999.0,  999.0,  999.0,    5.5,   -6.3,  999.0,  999.0,   -2.5,  999.0,   -1.0,  999.0,   -0.6,  999.0,   -0.8,  999.0,   -1.3,   -1.1,   -1.4,  999.0,  999.0,  999.0,  999.0,  999.0,  999.0,  999.0,  999.0,  999.0,  999.0,  999.0,  999.0,  999.0,  999.0,  999.0,   -0.5,   -0.6,   -1.2
2000/12/10 06:30,  999.0,    3.5,    4.9,    2.9,    1.2,    0.6,   -0.4,   -1.5,   -0.6,   -1.8,   -0.7,   -1.5,   -0.6,    0.1,   -3.0,   -6.3,  999.0,  999.0,  999.0,  999.0,  999.0,  999.0,  999.0,    0.4,    0.8,  999.0,  999.0,  999.0,   16.3,  999.0,   20.7,   21.0,   17.1,    5.2,  999.0,   -8.4,   28.3,   -5.5,  -20.6,   -0.3,  999.0,  999.0,   -9.3,   18.3,  999.0,   21.2,   14.2,  999.0,    5.5,  -10.1,  999.0,  999.0,   24.2,   -1.7,    9.8,  -21.5,   21.3,  999.0
2000/12/10 06:40,  999.0,    3.5,    1.7,    1.8,    1.1,    0.2,   -0.2,    0.3,   -1.0,   -1.5,   -1.9,    0.3,   -3.8,  999.0,  999.0,   -2.5,  999.0,  999.0,  -22.7,  999.0,  999.0,  999.0,  999.0,  999.0,  999.0,  999.0,   -4.6,   -3.2,   -1.8,   -0.7,    1.3,   -0.8,   -1.1,   16.6,  999.0,   12.9,   -0.9,   20.7,  999.0,  999.0,   19.4,  999.0,    0.4,    0.1,   15.1,   28.0,   27.5,    7.0,   16.3,    5.3,   20.1,  999.0,  999.0,  999.0,    4.5,  -19.9,  999.0,  999.0
2000/12/10 06:50,  999.0,  999.0,    0.0,    1.2,    1.0,    0.6,    0.2,    0.1,   -0.6,   -3.8,   -2.5,    0.4,  999.0,  999.0,  999.0,  999.0,  999.0,  999.0,  999.0,  999.0,  999.0,  999.0,  999.0,  999.0,  999.0,  999.0,  999.0,  999.0,  999.0,  999.0,  999.0,  999.0,  999.0,  999.0,  999.0,  999.0,  999.0,  999.0,  999.0,  999.0,  999.0,  999.0,  999.0,  999.0,  999.0,  999.0,  999.0,  999.0,  999.0,  999.0,  999.0,  999.0,  999.0,  999.0,  999.0,  999.0,  999.0,  999.0
2000/12/10 07:00,  999.0,  999.0,  999.0,    0.9,    1.0,    0.6,    0.5,    1.0,   -0.7,   -2.0,   -0.5,   -1.0,  999.0,  999.0,  999.0,  999.0,  999.0,  999.0,  999.0,  -20.5,  999.0,  999.0,    2.2,   26.5,   24.4,   25.0,  999.0,   25.3,   25.7,  999.0,  999.0,  999.0,  999.0,   -0.6,   -0.3,   -0.9,  999.0,  999.0,  999.0,   -0.5,  999.0,   20.1,   20.6,   -0.7,  999.0,  999.0,   -1.4,  999.0,   20.8,   21.1,   -0.7,  999.0,  999.0,  999.0,   -0.4,   20.5,   -0.4,  999.0
2000/12/10 07:10,  999.0,    1.0,    1.5,    1.1,    0.9,    5.3,    2.2,    5.2,    3.9,    4.9,    5.6,   -2.2,   -2.7,   -2.0,   -2.9,   -7.0,   -5.1,   -7.0,   -3.6,   -1.6,   -3.6,   -4.2,   -7.4,   -8.9,   -1.1,  999.0,  999.0,  999.0,   -3.8,   -3.7,   -1.8,   -1.7,   -1.9,   -2.9,    0.9,    0.6,    0.2,    0.4,   -0.0,   -0.1,   -8.8,  -11.0,  999.0,  999.0,   21.9,  999.0,  999.0,    1.2,   -8.0,    0.7,   -9.4,   -9.6,    0.5,    0.6,  -10.4,   -9.6,  999.0,    2.4
2000/12/10 07:20,  999.0,  999.0,  999.0,  999.0,    0.2,   -0.2,    0.1,   -0.1,   -0.2,   -0.8,   -1.1,   -0.1,   -1.4,   -2.1,   -2.5,   -4.1,   -2.3,  999.0,   -7.3,  999.0,  999.0,  999.0,  999.0,  999.0,  999.0,  999.0,  999.0,  999.0,  999.0,  999.0,  999.0,  -26.7,  -27.1,  999.0,  -18.0,  -19.2,  -23.2,  -23.8,  -23.4,  -23.6,  -27.3,  999.0,  -15.0,  999.0,  999.0,  999.0,  999.0,    2.0,    1.7,    1.4,    0.5,    0.6,    0.8,    0.4,    0.3,    0.5,    0.7,    0.5
2000/12/10 07:30,  999.0,  999.0,  999.0,    1.6,   -0.2,   -0.8,   -0.8,   -0.7,   -0.9,   -1.8,   -1.3,   -0.7,  999.0,  999.0,  999.0,   -3.4,   -6.1,  -20.7,  -11.0,   -8.5,   -2.4,  999.0,  999.0,  999.0,  999.0,  999.0,  999.0,  999.0,  999.0,   -1.0,   -0.7,   -0.7,  999.0,  999.0,  999.0,  999.0,  999.0,  999.0,  -29.6,   -9.8,  999.0,  999.0,  -17.8,  -11.7,   -0.2,    7.5,   -3.0,   -8.9,    0.6,    0.1,    1.0,    0.2,   -0.4,    0.3,   -6.4,    0.6,   -4.8,   -3.3
2000/12/10 07:40,  999.0,  999.0,    2.3,    0.5,    0.2,   -0.6,   -0.7,   -1.2,   -1.4,   -1.2,   -1.3,   -1.2,   -1.6,   -2.3,  999.0,   -1.8,   -2.1,   -3.5,  999.0,  999.0,  999.0,  999.0,  999.0,  999.0,  999.0,  999.0,  999.0,  999.0,  999.0,  999.0,  999.0,  999.0,  999.0,  999.0,  999.0,  999.0,  999.0,    0.3,    0.9,    0.5,    1.1,    0.8,    0.7,    0.8,   10.4,    0.5,    9.9,    6.9,    0.7,    6.0,    3.3,    0.5,    1.8,    1.0,    6.9,    0.6,   -3.2,    7.0
2000/12/10 07:50,  999.0,  999.0,    2.8,    0.7,   -0.9,   -1.4,   -1.3,   -1.3,   -1.1,   -0.8,   -1.2,   -1.2,   -1.8,   -1.9,   -4.7,  -14.5,   -6.6,   -6.5,  -26.3,  -28.1,  -29.8,   16.7,  999.0,   14.7,  999.0,  999.0,  999.0,  999.0,  999.0,  999.0,    1.0,    2.6,  -12.3,   -1.2,    0.7,    1.0,    0.9,    4.0,    8.7,    1.4,    0.7,    0.8,   20.0,    0.7,   15.0,    0.4,    8.4,    5.3,    0.6,    0.6,    0.7,    0.6,    0.8,    0.6,    0.3,    0.5,    0.8,    0.5
2000/12/10 08:00,  999.0,  999.0,  999.0,    1.0,   -0.3,   -0.3,   -0.1,   -0.5,   -1.1,   -0.8,   -0.9,   -0.5,   -1.9,   -2.5,   -4.1,   -5.3,   -6.0,   -4.5,   -2.8,   -2.9,  999.0,  999.0,  999.0,  999.0,  999.0,  999.0,  999.0,    4.4,    3.1,    1.7,    1.0,    1.1,    0.9,    0.9,    0.8,    0.7,    0.7,    0.8,    0.4,    1.1,    1.3,    0.8,    0.6,    0.7,    0.6,    0.8,    0.6,    0.7,    1.3,    0.8,    0.7,    0.4,    0.8,    1.5,    1.3,    1.0,    0.8,    0.6
2000/12/10 08:10,  999.0,  999.0,  999.0,    1.5,    0.5,    0.3,    0.0,   -0.3,   -0.9,   -0.9,   -0.8,   -0.2,   -1.3,   -2.5,  999.0,   -2.8,   -8.2,   -5.6,  999.0,  999.0,  999.0,  999.0,  999.0,  999.0,  999.0,  999.0,  999.0,    5.9,    2.9,    3.4,    0.6,    0.8,    0.8,    0.9,    1.0,    0.8,    0.9,    0.8,    0.3,    0.8,    0.6,    0.5,    0.7,    1.1,    0.6,    0.8,    0.9,    0.7,    0.7,    0.7,    0.9,    0.6,    0.8,    0.9,    0.7,    0.8,    0.7,    0.6
2000/12/10 08:20,  999.0,  999.0,  999.0,    0.2,    0.4,    1.2,    0.9,    0.2,    0.2,   -1.8,   -1.4,   -1.0,    2.1,   -4.2,    0.2,   -0.6,  999.0,  999.0,  999.0,  999.0,  999.0,   15.2,   13.3,  999.0,    3.7,    7.4,    6.0,    3.8,    1.9,    1.1,    0.7,    0.6,    0.6,    0.6,    1.2,    0.8,    0.6,    0.7,    1.0,    0.4,    0.6,    0.2,    0.4,    1.0,    0.7,    0.7,    0.6,    1.1,    0.8,    0.3,    0.6,    0.2,    0.5,    0.7,    0.6,    0.9,  999.0,    1.1
2000/12/10 08:30,  999.0,    1.5,    1.0,    1.9,   -0.0,    2.4,    1.2,    0.9,   -0.0,   -0.8,   -0.9,   -1.3,   -1.4,   -0.1,   -1.2,   -1.1,   -5.3,  999.0,  999.0,  999.0,  999.0,  999.0,   12.2,    9.1,    7.0,    5.0,    2.3,   -9.7,    0.6,   -6.3,    0.8,  -20.5,    0.6,    0.8,  -10.1,    0.5,    0.3,    0.6,    0.7,    0.6,   -9.8,    0.9,    0.8,    0.8,    0.6,   -6.6,    0.3,    0.6,   -9.7,    0.4,    0.9,    1.0,    0.9,    0.8,    0.4,    0.5,    0.4,  999.0
2000/12/10 08:40,  999.0,    0.4,    2.6,    2.8,    2.6,    2.4,    2.0,    0.3,   -0.1,   -0.1,   -0.3,   -1.2,   -1.8,   -1.2,    0.5,   -3.5,   -4.6,  999.0,   -4.2,    1.4,   12.2,  999.0,    9.7,    8.8,    5.0,   -2.5,    2.5,    1.7,    7.4,    1.3,    0.4,    0.9,    5.3,    1.0,    1.4,    1.0,    3.3,    0.8,  999.0,    0.5,   -4.7,    0.6,    1.2,    4.7,    0.8,    1.0,    0.3,    1.2,    1.1,   16.6,    4.8,    0.7,    0.9,    0.5,    0.7,    0.9,    0.6,   20.5
2000/12/10 08:50,  999.0,  999.0,    1.9,  999.0,  999.0,    0.8,    1.0,    0.3,    0.0,   -0.1,   -0.1,   -1.2,   -1.0,  999.0,  999.0,  999.0,  999.0,  999.0,   16.9,   15.5,   14.2,   12.9,   10.6,    9.7,    7.7,    6.2,   10.0,    5.6,    1.1,    1.2,    1.0,   11.1,    2.1,    1.1,    1.0,    0.9,    1.1,   10.0,    4.6,   12.4,    1.0,    4.5,    2.2,    2.8,    0.4,    7.3,    6.7,    7.4,    5.7,    0.7,    0.8,    0.7,    3.1,    0.4,    1.0,    0.9,    0.3,  999.0
2000/12/10 09:00,  999.0,    0.5,    0.2,   -0.1,   -0.8,   -1.1,   -0.0,   -0.2,   -0.2,   -0.7,   -1.4,   -2.3,   -2.2,   -0.7,   -5.3,  999.0,  -22.0,  -21.2,  999.0,   19.1,   17.2,  -29.4,  999.0,   11.6,   10.1,    8.0,    6.1,    4.6,    2.6,    2.9,    3.7,    0.7,    0.9,    0.8,    0.7,    0.4,    0.6,    0.7,    0.7,    0.8,    0.8,    0.9,   -6.2,  999.0,    0.9,    0.6,    0.3,    0.8,    0.9,    0.8,    0.9,    1.1,  999.0,  999.0,    0.9,    0.8,    0.7,    1.0
2000/12/10 09:10,  999.0,    0.8,    0.4,    0.5,   -0.2,   -1.1,   -0.1,    0.5,    0.9,   -0.1,   -0.2,   -1.2,   -2.1,  999.0,  999.0,  999.0,  999.0,  999.0,  999.0,  999.0,  999.0,  999.0,  999.0,  999.0,  999.0,   11.1,  999.0,    8.8,    7.7,  999.0,    5.2,    2.2,  999.0,    0.6,   14.3,   12.2,   11.2,   11.0,    3.1,    8.3,    0.9,    0.9,    0.4,    0.3,    1.7,    4.1,    0.8,    0.5,    4.4,    0.2,   -0.1,    1.2,    1.0,    1.0,   10.0,    0.6,    0.3,    0.5
2000/12/10 09:20,  999.0,  999.0,  999.0,  999.0,  999.0,  999.0,   -0.3,   -0.5,   -0.4,   -0.6,   -0.7,   -1.0,   -3.5,   -3.7,   -6.4,  999.0,  999.0,  999.0,  999.0,   13.8,  999.0,   10.8,    9.5,   10.4,   11.9,    6.7,    5.5,    4.2,    3.9,    0.4,    2.3,    1.0,    0.7,    0.9,    1.0,    0.8,    0.9,    0.6,    0.6,    0.9,    0.6,    0.7,    0.4,    0.3,    0.7,    0.9,    0.5,    0.0,    0.9,    0.8,    1.1,    0.6,    0.8,    0.9,    0.3,    0.8,    0.5,    0.8
2000/12/10 09:30,  999.0,    0.5,    0.5,   -1.2,   -1.1,   -2.3,   -2.2,   -2.0,   -1.1,   -2.6,   -2.5,   -6.3,  999.0,  999.0,  999.0,  999.0,   16.4,   15.0,   13.4,   12.4,   11.1,   12.2,  999.0,    8.2,    6.1,    5.0,  999.0,   11.3,   10.2,   10.6,    7.4,    1.3,    2.4,    1.1,    0.8,    6.5,    9.8,    0.8,    7.6,    0.7,    0.7,    0.7,    0.5,    0.7,    0.9,    0.3,    0.9,    0.9,    0.6,    0.4,    0.4,    0.1,    0.2,    0.6,    1.1,    0.7,    0.6,    0.8
2000/12/10 09:40,  999.0,    0.2,   -0.2,    0.3,    0.0,    0.5,   -0.0,   -0.6,   -0.1,    0.5,   -1.6,    1.5,    9.4,    9.3,   21.5,   -7.0,  999.0,  999.0,   16.9,  -15.6,    0.3,  -15.0,   -1.1,  -12.0,    7.9,  999.0,   -3.1,   -7.6,   -0.7,   -9.7,    1.4,   -0.8,   -0.3,    6.2,  999.0,   11.9,    2.8,   -6.9,   -6.0,  -15.0,  -10.6,  -10.5,    5.7,   -7.0,   -0.9,    8.8,   -9.5,   11.5,    0.3,    5.1,   -8.6,  -14.6,    8.0,   11.2,    0.3,    0.2,  -10.2,    0.6
2000/12/10 09:50,  999.0,    0.5,   -0.3,    0.7,    0.7,    0.4,   -0.4,   -1.2,   -0.2,   -1.2,   -1.3,   -2.1,   -4.6,   -7.6,  999.0,   -4.7,  999.0,  999.0,  999.0,  999.0,  -28.4,  -29.9,  999.0,  999.0,  999.0,  999.0,  999.0,  999.0,  999.0,  999.0,  999.0,  999.0,    0.5,  999.0,  999.0,  999.0,    0.8,    0.7,    0.7,    0.7,    0.8,  999.0,    0.8,    0.6,    1.1,    0.9,  999.0,  999.0,    0.8,   -6.3,    0.7,    0.9,    0.9,   -6.2,    1.0,    0.2,    0.6,    0.8
2000/12/10 10:00,  999.0,    0.7,    0.1,    0.3,    0.6,   -0.1,   -0.9,   -1.9,   -2.3,   -2.3,   -2.1,   -3.0,   -4.1,   -4.0,   -7.5,  999.0,  999.0,  999.0,   -0.6,   -0.1,    0.0,   -0.4,  999.0,   -5.1,  999.0,  999.0,  999.0,  999.0,  -19.4,  999.0,  999.0,  999.0,  999.0,  999.0,  -11.1,   -0.1,  999.0,  999.0,  999.0,    0.3,  999.0,    0.9,   -4.1,    9.7,    1.2,    8.2,    3.7,    0.7,    0.9,    0.5,    9.2,    6.4,    0.8,    1.7,    8.1,    0.6,    0.5,    7.7
2000/12/10 10:10,  999.0,    0.0,    0.3,    0.7,    0.4,   -0.8,   -1.0,   -1.2,   -1.9,   -3.7,   -3.2,   -3.5,   -4.1,   -5.1,   -6.3,   -7.3,   -8.7,   -7.7,  -14.8,  -16.9,  -22.2,  -24.5,  999.0,  999.0,  999.0,  999.0,  999.0,  999.0,  999.0,  999.0,  999.0,  999.0,  999.0,  999.0,  999.0,  999.0,    0.7,  999.0,  999.0,    0.9,    0.1,    0.8,  -18.3,   -6.8,   -1.8,    0.7,   -4.0,    0.9,    0.6,    0.5,    0.9,    0.7,    0.7,    0.8,    0.7,    0.1,    0.4,    0.4
2000/12/10 10:20,  999.0,  999.0,    0.9,    0.3,   -0.2,   -0.2,   -0.4,   -0.8,   -2.4,   -3.8,   -3.8,   -4.2,   -4.0,   -4.0,   -4.1,   -6.2,   -7.9,   -9.9,  -11.7,  -12.6,  -14.5,  -16.4,  -18.4,  999.0,  -22.8,  -23.5,  999.0,  999.0,  999.0,  999.0,  999.0,  999.0,  999.0,  999.0,  999.0,  999.0,    0.9,    0.8,    0.5,    0.6,    0.9,    0.6,    1.0,    0.9,    1.0,    0.8,    0.6,    1.2,    1.0,    0.8,    0.8,    1.0,    0.9,    0.6,    0.9,    0.7,    0.7,    0.8
2000/12/10 10:30,  999.0,  999.0,    0.8,    0.6,   -0.0,   -0.2,   -0.3,   -0.8,   -1.6,   -2.7,   -1.5,   -3.2,   -5.0,   -5.3,   -4.7,   -2.3,   -9.1,   -9.9,  -11.7,  -14.8,  -12.1,  -15.5,  -19.3,  -20.7,  999.0,  -20.0,  -20.9,  999.0,  999.0,  999.0,  999.0,  999.0,  999.0,    0.7,    0.4,    0.4,    0.8,    0.7,    1.0,    0.5,    0.8,    1.1,    0.9,    1.1,    0.4,    1.0,    0.7,    0.7,    0.8,    0.7,    0.7,    0.8,    0.9,    1.1,    1.3,    0.9,    0.7,    0.8
2000/12/10 10:40,  999.0,  999.0,    0.8,    0.4,    0.1,   -0.1,   -0.1,   -0.3,   -1.2,   -4.1,   -4.5,   -3.6,   -4.4,   -4.7,   -5.6,   -8.1,   -9.3,   -9.9,  -10.2,  -11.6,  -12.0,  -16.9,  999.0,  999.0,  -22.1,  -21.5,  -21.2,  999.0,  999.0,  999.0,  999.0,  999.0,  999.0,    0.6,  999.0,    0.6,    0.7,    0.7,    0.8,    0.6,    0.8,    0.5,    0.5,    0.6,    0.4,    0.8,    1.2,    0.6,    1.0,    0.8,    0.8,    0.2,    0.7,    0.7,    0.9,    0.6,    0.2,    7.6
2000/12/10 10:50,  999.0,  999.0,    0.1,   -0.1,   -0.7,   -1.2,    0.0,   -0.1,   -0.8,   -2.5,   -2.4,   -2.7,   -4.0,   -5.6,   -5.7,   -5.5,   -7.4,  -12.0,  -10.7,  -16.3,  -18.5,  -20.1,  -21.7,  -23.2,  -21.6,  999.0,  -21.9,  999.0,  999.0,  999.0,  999.0,    0.1,  999.0,    0.6,    0.7,    0.6,  999.0,    0.5,    0.7,    0.5,    0.6,    0.6,    0.5,    0.9,    0.5,    0.8,    0.5,    0.7,    0.5,    0.5,    0.8,    0.7,    0.7,    0.7,    0.5,    0.2,    0.6,    0.7
2000/12/10 11:00,  999.0,  999.0,   -2.5,   -9.2,   -1.8,   -1.1,   -5.6,   -2.9,   -3.5,   -3.4,   -2.9,   -4.8,   -4.1,   -3.6,   -3.5,   -5.5,   -7.3,   -8.9,  -10.7,  -12.3,  -13.0,  -13.9,  -17.0,  -19.8,  -22.1,  -23.6,  -20.4,  999.0,  -21.9,  -21.0,  999.0,  999.0,    0.5,   -5.4,    1.3,   -5.6,   -3.7,  -12.8,   -7.3,    0.6,    1.0,    0.8,    1.1,    0.6,   -5.6,  -11.4,   -7.2,   -2.8,   -6.2,   -6.2,    0.2,    0.5,    1.0,    0.3,    1.2,    0.8,    1.5,    1.1
2000/12/10 11:10,  999.0,  999.0,    3.4,    0.4,   -1.9,   -2.8,   -0.9,   -0.8,   -1.0,   -1.8,   -1.4,   -3.2,   -2.9,   -2.5,   -3.2,   -3.9,   -4.3,   -2.4,   -3.8,    4.7,   -3.8,    2.9,    2.4,    2.6,   -5.3,    2.8,    1.9,    2.2,   -9.5,  -19.3,   -1.8,   -1.2,  999.0,   -0.7,   -0.5,   -0.4,   -0.3,   -0.9,   -1.2,  999.0,   -0.7,   -0.7,   -0.4,  -10.2,  -10.7,   -9.6,   -6.3,   -5.1,   -5.6,  999.0,   -9.8,  999.0,  999.0,   -0.2,  -10.6,    0.0,  -20.7,  -24.1
2000/12/10 11:20,  999.0,    0.2,    0.5,    0.4,   -3.8,   -5.5,   -2.7,   -1.8,   -3.0,   -4.9,   -5.0,   -6.9,   -3.6,   -9.4,  999.0,  999.0,   -4.0,   -4.1,   -5.3,   -5.8,  999.0,   -5.6,   -6.2,   -5.5,   -4.9,   -5.7,   -6.5,   -6.8,  999.0,  999.0,  999.0,  999.0,  999.0,  -12.2,  999.0,  999.0,  999.0,  999.0,  999.0,  999.0,  999.0,  999.0,  -17.7,  -17.3,  -17.7,  -19.0,  -19.5,  -19.6,  -19.8,  999.0,  999.0,  999.0,  999.0,  999.0,  999.0,  999.0,  999.0,  999.0
2000/12/10 11:30,  999.0,    1.6,    0.0,    0.5,   -0.9,   -1.1,   -0.3,   -0.5,   -2.4,   -3.7,  -11.8,  -21.5,  -21.8,  -21.5,  -19.2,  -13.6,   -0.9,   -4.7,   -3.1,   -1.0,   -0.9,   -0.5,   -1.9,   -0.8,   -0.9,   -0.7,   -0.9,   -0.8,   -0.2,    6.1,   -0.7,  999.0,   -0.4,   -1.0,  -12.5,   11.3,   -0.9,    3.6,    8.7,    0.8,  999.0,   -0.2,  -12.7,  -19.6,   -6.0,   20.2,   -1.2,   21.0,   21.5,   -0.0,   -0.3,   -0.3,  -21.1,   21.4,    3.5,   17.0,   -0.4,    9.5
2000/12/10 11:40,  999.0,   -1.1,   -0.4,   -2.1,   -0.8,   -1.0,   -1.8,   -2.0,   -3.2,   -2.0,   -2.0,    0.7,    4.4,   13.8,  999.0,  999.0,   -1.0,   -1.4,   -0.8,   -0.5,   -0.5,   -1.8,   -7.4,   -7.4,   -7.4,   -0.8,   -4.0,   -0.9,   -0.8,   -2.5,   -6.8,   -0.8,   -0.7,   -0.8,   -0.4,   -0.5,  999.0,   -0.9,  -10.7,  -12.2,  999.0,   -6.1,    3.7,   11.6,    6.6,   -1.1,   -1.3,   -5.2,  999.0,   13.0,  -15.4,  999.0,  999.0,  -24.9,  -28.7,  999.0,  999.0,  999.0
2000/12/10 11:50,  999.0,   -0.3,   -0.9,   -1.3,   -0.6,    0.7,    0.2,    0.0,   -0.0,   -0.3,   -0.6,   -0.5,   -1.2,   -1.5,   -1.9,   -0.4,   -4.4,   -4.3,   -4.0,   -3.3,   -3.2,   -4.4,  -13.6,   -2.6,   -1.8,  999.0,  999.0,   -0.8,   20.2,  -18.3,   -8.1,  -10.4,  999.0,   -7.3,   19.6,    5.2,  -10.8,  -12.8,   -4.5,  -30.0,  999.0,  999.0,  -20.6,  -20.1,  -24.9,  999.0,  999.0,  -29.5,  -16.3,  -23.3,   21.8,   -1.4,    0.2,  -21.1,    0.3,   10.4,  -15.8,   -9.5
2000/12/10 12:00,  999.0,    1.2,    0.9,    1.1,   -0.2,   -0.6,   -0.2,   -1.8,   -3.5,   -3.7,   -5.8,   -5.9,   -5.6,   -2.1,   -1.1,   -2.3,   -3.6,   -7.1,   -2.9,  999.0,  999.0,  999.0,  999.0,  999.0,  999.0,  999.0,  999.0,  999.0,  999.0,  999.0,  999.0,  999.0,  999.0,  999.0,  999.0,  999.0,   -5.5,   18.9,   18.8,  999.0,  999.0,  999.0,  -21.1,  -20.8,  -19.9,   -8.4,   -8.1,  -21.2,  -11.3,   -8.6,   -0.8,   -1.4,   -1.2,    0.5,    2.0,  999.0,   -0.4,   -9.7
2000/12/10 12:10,  999.0,    0.7,    0.9,    1.5,    1.5,    0.2,    0.4,    1.0,   -0.7,   -3.6,   -4.3,   -6.6,   -5.5,   -6.0,   -5.4,  -10.0,  -11.7,  -10.2,  -18.6,  -19.4,  999.0,  999.0,  999.0,  999.0,  999.0,  999.0,  999.0,  999.0,  999.0,  999.0,  -20.8,    0.9,  999.0,  999.0,  999.0,  -20.5,    0.1,    0.5,  999.0,    0.4,    0.9,  -21.4,  -15.9,  -22.2,   -9.9,   -9.9,  -12.7,  -12.7,  999.0,  999.0,  999.0,  999.0,  999.0,    0.6,    0.5,    0.6,    0.9,  999.0
2000/12/10 12:20,  999.0,    0.5,    1.1,    0.9,    0.5,    1.3,    1.4,    2.5,    3.3,    3.2,    3.1,    1.9,    4.7,    4.2,    3.7,    3.5,    4.6,    4.5,  -14.4,   -4.2,  -16.4,   -3.1,   -1.9,   -1.2,  -11.1,  -12.8,  -14.6,  999.0,  999.0,  999.0,  999.0,  999.0,  999.0,  -29.6,  -23.1,  -16.5,   -9.8,  -24.7,   -0.6,   -0.5,   -0.3,   -0.2,   -0.5,  999.0,  999.0,  -10.7,   -0.7,   -0.5,   -0.5,   -0.5,   -0.3,   -1.1,   -0.3,   -0.6,  999.0,   -0.5,   -0.8,   -0.7
2000/12/10 12:30,  999.0,    0.4,    0.8,    1.3,    0.7,    0.6,    0.3,    0.2,    0.3,    0.6,   -0.6,    1.0,   -1.1,   -1.9,   -2.1,    1.9,    2.5,    0.8,   -3.5,   -4.9,   -7.5,   -7.0,   -6.2,   -7.4,   -6.9,   -5.6,  999.0,  999.0,  999.0,   -0.3,    4.0,   10.4,   12.3,    5.1,    4.9,    4.2,    4.4,   12.0,    2.0,    1.9,   -1.7,    0.1,   -0.9,  999.0,  999.0,   -5.1,   20.0,  999.0,  999.0,  999.0,  999.0,  999.0,  999.0,  999.0,  999.0,  999.0,  999.0,  999.0
2000/12/10 12:40,  999.0,    5.7,    2.4,    3.0,    1.5,    0.4,   -2.7,   -0.4,   -0.8,   -3.5,   -2.3,   -2.2,   -2.5,   -1.2,   -0.6,   -3.5,   -4.4,   -3.7,   -4.5,   -5.8,   -8.2,   -6.3,   -4.7,   -1.2,    2.9,   13.0,   16.4,    8.2,   10.7,   12.7,   13.2,   12.3,   14.2,   14.5,   12.3,    9.0,    9.0,   16.8,   14.3,   13.0,   13.7,   13.5,   15.6,   15.2,  999.0,  999.0,  999.0,  999.0,   -0.9,   -9.7,  999.0,  999.0,   -0.2,  999.0,  999.0,   -0.4,  999.0,   -1.4
2000/12/10 12:50,   13.5,    5.5,    3.1,    1.0,    0.5,   -1.9,   -2.7,   -0.6,   -2.9,    0.9,    2.3,    1.6,   -0.3,   -0.8,   -3.8,   -0.1,    1.3,   -0.8,    0.3,    1.4,   -5.6,   -1.7,   -5.4,   -6.1,   -2.4,   -6.7,   -7.1,   -4.5,   -8.6,   -7.4,   -5.4,   -5.4,   -5.1,    0.1,   -0.1,   -0.7,    2.4,    2.7,   -0.8,   -3.5,   -2.8,   -0.7,   -1.0,    0.7,    0.5,    0.7,   -0.9,   -1.4,    7.1,   10.2,   -0.8,   -0.6,  999.0,   -0.7,  999.0,   -0.8,   -1.3,   -0.9
2000/12/10 13:00,  999.0,  999.0,   -3.0,   -3.4,    0.6,    4.0,    2.1,    3.1,    3.6,    2.8,    2.5,    0.5,    0.2,    1.7,    0.3,   -0.6,    0.5,    0.5,    2.7,    2.4,  999.0,   -5.4,  -13.8,  999.0,  999.0,   -2.0,  -13.1,   -1.6,  -12.1,  999.0,  999.0,   21.4,  -20.9,  999.0,   -4.4,   13.8,    3.8,   14.2,  999.0,    0.5,  999.0,   -0.1,  -11.4,    0.3,   -9.6,  -17.9,  -15.7,   -4.7,   10.8,  999.0,    0.7,   18.2,    2.7,   22.8,  999.0,   15.0,  999.0,  999.0
2000/12/10 13:10,  999.0,    0.7,    1.2,    3.2,    2.0,    1.1,    0.4,    4.6,    4.0,    4.5,    1.0,   -1.3,   -1.2,   -1.0,    0.1,    0.8,    3.7,    5.2,  999.0,    4.2,  999.0,  999.0,  -21.6,  -13.6,  -21.2,  -11.4,   -0.7,   -1.0,   -0.9,  -10.2,  -10.7,   -0.8,   -0.9,  999.0,  999.0,  999.0,  999.0,  999.0,  999.0,  999.0,  999.0,  999.0,  999.0,   17.2,   16.5,   16.0,   16.4,   15.4,  999.0,  999.0,  999.0,   19.9,   20.3,  999.0,  999.0,  999.0,  999.0,  999.0
2000/12/10 13:20,  999.0,  999.0,  999.0,  999.0,    2.0,    0.2,    0.2,    0.2,    0.1,   -0.1,   -0.5,   -2.0,   -2.0,   -0.9,   -0.0,    4.8,   -0.7,  999.0,  999.0,  999.0,  999.0,   -2.9,   -0.6,    9.8,   -0.9,   10.2,   -0.8,   -0.9,   -0.8,  999.0,   -1.1,    9.9,   -0.8,   -0.5,  999.0,   -1.0,  999.0,  999.0,  999.0,  999.0,  999.0,  999.0,   21.9,   17.7,   17.6,   23.9,   20.3,   20.4,   19.0,  999.0,  999.0,  999.0,  999.0,  999.0,  999.0,  999.0,  999.0,  999.0
2000/12/10 13:30,  -18.2,  -15.1,  -11.9,  -10.4,   -2.6,    0.4,    0.2,   -0.1,   -4.6,   -6.0,   -6.9,   -7.5,   -6.5,   -7.0,  -10.4,    1.0,  999.0,  999.0,  999.0,  999.0,   -8.4,   -5.9,  999.0,   -1.2,   -1.8,   -1.2,   -0.7,   -0.9,   -0.6,   -0.4,   -0.4,   -0.6,   -0.5,   -0.3,  999.0,   -0.7,  999.0,  999.0,  999.0,  999.0,  999.0,  999.0,   16.7,   14.7,   10.5,   12.7,   15.1,   20.3,  999.0,  999.0,  999.0,  999.0,   22.6,  999.0,  999.0,    1.0,   10.8,   20.5
2000/12/10 13:40,  -16.9,  -13.3,   -9.5,   -5.6,   -3.0,   -1.4,   -0.1,   -0.3,   -0.7,   -1.1,    0.7,    0.4,    1.6,    3.4,    3.1,  999.0,    5.8,  999.0,  999.0,  999.0,  999.0,  999.0,  999.0,  999.0,  999.0,   -0.3,    0.0,   -0.5,   -0.6,   -0.6,   -0.5,   -0.7,   -1.0,   -0.8,   -0.9,   -0.8,    0.2,  999.0,  999.0,  999.0,  999.0,   17.5,   17.8,   17.1,   17.2,   17.9,   20.5,   21.1,   20.8,   21.1,  999.0,  999.0,  999.0,  999.0,  999.0,  999.0,  999.0,  999.0
2000/12/10 13:50,  -16.3,  -11.1,   -5.8,   -4.6,   -2.2,   -0.8,    1.5,    0.4,   -0.3,   -0.8,    0.5,   -0.1,   -0.3,   -0.9,   -4.2,    0.6,  999.0,  999.0,  999.0,   -8.1,   -6.4,  999.0,   -1.9,   -0.8,   -0.6,   -0.4,   -0.7,   -0.6,   -0.2,   -0.3,   -0.7,   -0.4,   -0.2,   -0.5,   -1.3,   -0.3,   -1.1,  999.0,  999.0,  999.0,  999.0,   15.6,   16.7,   17.0,   17.3,   17.1,   17.8,   19.6,   24.1,   18.4,   18.4,   20.4,  999.0,  999.0,  999.0,  999.0,  999.0,  999.0
2000/12/10 14:00,  -15.2,   -6.8,   -3.6,   -1.9,   -0.9,    0.4,    1.3,    0.2,   -0.8,   -0.2,   -0.2,   -0.4,    0.7,    3.1,    8.5,    4.6,   20.6,   16.6,  999.0,  999.0,  999.0,  999.0,  999.0,  999.0,  999.0,   -0.2,   -1.3,   -1.3,   10.0,    9.5,   -0.6,   -0.9,  999.0,    0.0,   -0.8,  999.0,  999.0,  999.0,    7.3,    4.8,    9.1,    8.5,   -1.8,    9.9,   10.5,   12.2,   16.8,  999.0,  999.0,  999.0,  999.0,  999.0,  999.0,  999.0,  999.0,  999.0,   -0.2,  999.0
2000/12/10 14:10,  -16.5,  -11.0,   -6.1,   -1.9,    0.6,    1.7,    2.0,    0.5,    0.1,   -0.4,   -0.6,   -0.1,   -0.6,   -1.0,   -0.2,   -0.1,    0.6,    3.3,    4.3,    6.8,    8.6,    6.0,    7.4,    9.8,  999.0,  999.0,  999.0,  999.0,  999.0,  999.0,  999.0,  999.0,  999.0,  999.0,  999.0,  999.0,   14.9,   16.2,   17.0,   17.4,  999.0,  999.0,   15.5,    8.0,  999.0,   15.4,   13.1,  999.0,  999.0,   18.4,   18.2,  -20.3,  999.0,  999.0,  999.0,  999.0,  999.0,  999.0
2000/12/10 14:20,  -17.3,   -6.4,   -4.0,    0.1,    2.4,    1.5,    1.5,    2.1,    2.5,    0.9,    0.3,    0.8,    1.8,   15.7,   -2.3,    1.9,    2.9,    7.9,    6.6,  999.0,   18.5,  999.0,  999.0,  999.0,   15.1,   15.9,  999.0,  999.0,  999.0,  999.0,  999.0,  999.0,  999.0,  999.0,  999.0,  999.0,    4.0,  999.0,    9.0,  999.0,  999.0,    1.3,   -3.9,   -4.5,   -7.8,  -10.0,  -11.7,  -14.3,  999.0,  999.0,  -17.3,  -21.2,  -20.3,  999.0,  999.0,  999.0,  999.0,  999.0
2000/12/10 14:30,  -17.8,  -14.0,   -9.5,   -4.9,   -2.2,   -1.1,   -0.4,    0.7,   -0.4,   -0.9,   -0.7,   -0.8,   -1.9,    0.8,  999.0,   -1.1,   -1.3,    6.1,    5.2,    6.4,    9.6,  999.0,  999.0,   10.7,   13.3,   15.4,  999.0,  999.0,  999.0,  999.0,  999.0,  999.0,  999.0,  999.0,   14.1,  999.0,  999.0,  999.0,    6.1,    3.9,  999.0,    2.8,   -2.8,   -4.5,   -5.8,   -9.1,  999.0,   -9.6,  -11.1,  -15.5,  999.0,  -15.4,  -16.8,  999.0,  999.0,  999.0,  999.0,  999.0
2000/12/10 14:40,  -19.5,  -17.0,  -14.6,  -12.3,   -9.3,   -6.3,   -3.8,   -0.8,   -0.8,   -0.1,   -0.3,   -1.3,   -0.8,   -0.5,    0.2,  999.0,  999.0,  999.0,    6.9,    9.9,   11.8,   17.1,   17.5,   17.0,   17.4,  999.0,  999.0,  999.0,  999.0,  999.0,  999.0,  999.0,   15.6,  999.0,  999.0,  999.0,    8.5,    6.7,    6.4,    3.1,    2.3,   -0.1,   -1.0,   -2.2,   -5.4,  999.0,   -8.6,  -10.1,  -13.9,  -14.4,  -17.5,  999.0,  999.0,  999.0,  999.0,  999.0,  999.0,  999.0
2000/12/10 14:50,  -20.4,  -11.4,   -9.1,   -7.1,   -6.6,   -5.1,   -1.0,   -0.6,   -0.4,   -0.8,   -0.6,   -0.8,   -0.9,   -2.0,  999.0,  999.0,  999.0,  999.0,  999.0,   18.5,   19.4,  999.0,  999.0,  999.0,  999.0,  999.0,  999.0,   20.1,  999.0,   19.5,  -18.8,   18.1,  -21.9,  999.0,  999.0,   -8.3,   10.1,    1.7,    6.3,   -9.0,   -9.7,   -0.9,  999.0,  999.0,   -1.1,   -1.4,    4.1,   -9.1,  -15.2,  -14.8,  -20.6,   -3.8,  -23.6,  999.0,  999.0,  999.0,  999.0,  999.0
2000/12/10 15:00,  -20.5,  -17.9,  -15.0,  -11.6,   -7.9,   -5.9,   -2.9,   -1.0,   -0.1,   -0.2,   -0.1,   -0.3,    0.1,  999.0,    0.6,  999.0,    7.7,    9.8,   10.7,   13.4,   17.8,   15.9,   16.7,   18.2,   19.2,  999.0,   19.0,   18.9,   17.6,  999.0,  999.0,  999.0,  999.0,  999.0,   13.6,    8.8,    7.2,    5.7,  999.0,  999.0,  999.0,  999.0,  999.0,   -5.0,   -6.0,   -7.9,  -10.1,  999.0,  -12.3,  -14.3,  -16.0,  999.0,  999.0,  999.0,  999.0,  999.0,  999.0,  999.0
2000/12/10 15:10,  -19.5,  -16.8,  -13.7,  -10.2,   -7.2,   -4.6,   -1.8,    0.5,    0.2,    0.4,   -1.0,   -0.4,   -0.5,   -0.5,    1.4,    3.9,    4.2,    4.8,    7.0,   10.0,   11.0,   14.3,   17.0,   19.1,   19.5,   22.0,  999.0,  999.0,  999.0,  999.0,  999.0,  999.0,   17.2,  999.0,   12.7,  999.0,  999.0,  999.0,  999.0,    2.0,   -1.9,    0.3,   -2.5,   -6.5,   -7.3,   -7.8,  -10.7,  -11.7,  -15.0,  -16.4,  999.0,  999.0,  999.0,  999.0,  999.0,  999.0,  999.0,  999.0
2000/12/10 15:20,  -19.5,  -16.2,  -13.3,   -9.9,   -5.9,   -3.1,   -0.9,    1.3,    1.7,    1.7,    0.8,    0.3,    0.0,   -1.1,   -3.6,    0.6,    3.2,    4.6,    6.8,    9.1,   11.1,   13.7,  999.0,  999.0,  999.0,  999.0,  999.0,  999.0,  999.0,   17.0,  999.0,  999.0,  999.0,  999.0,   17.3,  999.0,  999.0,    5.8,    9.4,    7.9,  999.0,    0.6,    1.6,   -2.0,  999.0,   -3.7,   -5.7,  -10.4,  999.0,  999.0,  999.0,  999.0,  999.0,  999.0,  999.0,  999.0,  999.0,  999.0
2000/12/10 15:30,  -17.6,  -13.7,   -9.2,   -5.9,   -2.3,    0.3,    0.2,    0.8,    1.8,    1.1,    0.7,    0.4,    0.2,   -0.5,   -2.4,    0.4,    3.2,    4.9,    7.3,   10.5,   12.6,   14.3,  999.0,  999.0,  999.0,  999.0,  999.0,  999.0,  999.0,  999.0,  999.0,  999.0,  999.0,  999.0,  999.0,  999.0,  999.0,  999.0,  999.0,  999.0,    5.6,    3.1,  999.0,   -2.1,  999.0,   -5.0,   -6.8,  999.0,  999.0,  999.0,  999.0,  999.0,  999.0,  999.0,  999.0,  999.0,  999.0,  999.0
2000/12/10 15:40,  -16.9,  -12.8,   -8.9,   -4.1,    0.3,    2.0,    1.2,    1.6,    1.9,    1.8,    0.9,    1.5,    0.4,   -3.5,   -4.2,  999.0,  999.0,  999.0,  999.0,    9.8,   14.7,   16.0,  999.0,  999.0,  999.0,  999.0,  999.0,  999.0,  999.0,  999.0,  999.0,  999.0,  999.0,  999.0,  999.0,  999.0,  999.0,  999.0,  999.0,  999.0,  999.0,  999.0,  999.0,  999.0,  999.0,  999.0,  999.0,  999.0,  999.0,  999.0,  999.0,  999.0,  999.0,  999.0,  999.0,  999.0,  999.0,  999.0
2000/12/10 15:50,  -16.1,  -10.8,   -5.1,   -0.3,    1.8,    2.0,    1.1,    0.6,    0.3,    1.1,    0.4,    0.5,    1.0,    3.1,   -1.7,  999.0,  999.0,  999.0,   12.1,   13.2,   14.5,  999.0,   14.9,  999.0,  999.0,  999.0,  999.0,  999.0,  999.0,  999.0,  999.0,  999.0,  999.0,  999.0,  999.0,   -1.4,  999.0,   -6.0,   -7.7,  -10.5,  999.0,  -14.3,  -16.4,  -18.6,  -20.3,  -22.6,  -24.8,  -26.5,  -28.5,  -29.7,  999.0,  999.0,  999.0,  999.0,  999.0,  999.0,  999.0,  999.0
2000/12/10 16:00,  -14.7,   -8.2,   -0.4,    2.2,    2.9,    2.0,    1.4,    1.3,    1.0,    0.6,    1.0,    1.1,    0.9,   -0.9,    1.0,    3.9,  999.0,  999.0,    7.6,   14.8,   18.5,  999.0,  999.0,  999.0,  999.0,   13.7,  999.0,  999.0,  999.0,  999.0,  999.0,  999.0,  999.0,  999.0,  999.0,  999.0,   -0.7,  999.0,   -3.0,   -4.0,   -7.1,  -11.1,  -11.4,  -15.8,  -17.7,  -17.7,  -21.1,  -23.1,  -25.4,  -25.9,  999.0,  -29.7,  999.0,  999.0,  999.0,  999.0,  999.0,  999.0
2000/12/10 16:10,  -15.3,   -9.6,   -3.5,   -0.6,    0.5,    0.1,    0.4,    1.6,    1.2,    0.7,    0.2,    0.9,    0.4,   -0.0,   -0.3,  999.0,  999.0,  999.0,    8.0,    9.0,   12.8,  999.0,  999.0,  999.0,  999.0,  999.0,  999.0,  999.0,  999.0,  999.0,  999.0,  999.0,  999.0,    0.4,   -0.2,   -0.7,   -0.4,   -0.6,   -1.1,   -2.1,   -3.5,   -7.7,  -10.2,  -11.9,  -14.5,  -17.1,  -19.6,  -22.5,  -24.5,  -26.9,  -28.2,  999.0,  999.0,  999.0,  999.0,  999.0,  999.0,  999.0
2000/12/10 16:20,  -14.8,    0.0,    1.3,    2.0,    0.8,    0.7,    0.4,    0.7,    1.0,   -0.3,    0.2,    0.0,    0.6,    1.5,    1.4,    1.9,    1.5,  999.0,  999.0,  999.0,  999.0,  999.0,   17.0,  999.0,  999.0,  999.0,  999.0,  999.0,  999.0,  999.0,  999.0,  999.0,   -0.8,    9.0,   -0.8,   -0.5,  999.0,   -0.4,   -0.3,   -0.8,   -0.6,   -0.8,   -1.1,   -0.5,   -0.7,   -0.5,   -3.4,   -1.0,   -7.8,   -0.3,  -12.4,  -15.5,   -7.6,   -9.3,  -11.8,  999.0,  999.0,  999.0
2000/12/10 16:30,   -9.0,   -0.4,    1.4,    2.2,    0.7,    0.5,    0.2,    0.5,    0.7,    1.5,    0.3,    5.3,    8.2,    7.0,    8.8,   11.8,   14.1,   14.3,  999.0,   13.6,  999.0,  999.0,  999.0,  999.0,  999.0,  999.0,  999.0,  999.0,  999.0,   -0.9,  999.0,   -0.9,  999.0,   -1.3,  999.0,  999.0,   -9.5,   -3.3,   -6.9,   -0.6,   -0.6,   -1.0,   -0.4,   -0.8,   -0.7,   -0.8,  999.0,  999.0,   -1.3,  999.0,  999.0,   -0.6,   -1.0,  999.0,   -0.6,   21.4,   21.4,    6.6
2000/12/10 16:40,  -12.9,   -3.6,    1.4,    1.5,    1.0,    1.1,    0.2,    0.4,    1.1,    2.2,    1.1,    0.1,   -0.7,    0.2,    0.4,   -1.0,  999.0,  999.0,  999.0,  999.0,   -3.7,  999.0,  999.0,  999.0,  999.0,  999.0,  999.0,  999.0,  999.0,  999.0,  999.0,  999.0,    1.4,   -8.8,   -0.7,   -6.8,   -0.6,  999.0,   -0.6,  -10.6,   -6.8,  999.0,  -25.1,  -24.2,  -29.2,  999.0,  999.0,  999.0,   -0.4,  -12.8,  999.0,  -17.8,    0.9,    1.0,    0.5,  999.0,  999.0,    0.5
2000/12/10 16:50,  -12.1,   -5.3,   -0.3,    1.1,    0.8,    0.3,    0.1,    0.1,   -0.1,    0.2,    0.2,   -1.0,   -0.9,   -0.3,   -0.7,    0.2,    3.0,    6.5,   14.5,  999.0,  999.0,  999.0,  999.0,    0.1,  999.0,   -0.6,   -0.0,  999.0,  999.0,   -0.8,  999.0,   -1.1,   -0.7,   -0.8,   -0.6,   -0.5,   -7.3,   -5.1,   -1.2,   -1.0,    6.4,   -0.4,   -0.5,    5.8,  999.0,  999.0,   -0.7,   -6.5,   -0.4,   10.2,   -8.7,    0.8,   -7.8,   -1.1,  -14.8,    1.1,   -0.1,  -14.3
2000/12/10 17:00,   -8.8,   -4.3,   -1.3,    0.6,   -0.1,   -0.4,   -0.8,   -0.7,   -0.8,    0.4,   -0.1,    0.1,   -0.6,   -1.8,   -3.1,    2.7,  999.0,    3.0,   -6.7,    8.5,  999.0,  999.0,  999.0,  999.0,  999.0,    0.6,    1.3,  999.0,  999.0,   -0.6,    3.0,   -1.0,   -6.4,   -0.2,   -0.6,  999.0,    1.8,  -10.9,   12.3,   -0.7,    9.8,   -0.8,   -0.7,   10.0,   -0.7,   -0.6,    6.3,   -0.7,    6.5,   -1.2,   -0.8,    6.5,   -0.7,   -1.4,   -1.4,   -0.8,   -0.8,   -0.7
2000/12/10 17:10,  -14.1,   -7.7,   -1.8,    0.8,    0.2,   -0.4,   -1.0,   -1.3,   -0.9,   -0.7,   -2.0,   -1.1,   -1.7,   -0.8,   -0.9,    0.7,   -0.8,   -0.4,  999.0,   10.8,  999.0,  999.0,  999.0,  999.0,  999.0,   -1.0,  999.0,   -1.4,   -0.9,  999.0,   -1.1,   -0.9,   -0.8,   -0.6,   -0.5,   -0.5,   -0.6,   -0.6,   -0.7,   -0.6,   -0.6,   -0.8,   -0.8,   -0.5,   -0.9,   -0.8,   -0.7,   -0.8,   -0.8,   -0.9,   -0.8,   -0.7,   -0.8,   -0.6,   -0.8,   -0.7,   -0.5,   -1.0
2000/12/10 17:20,   -7.9,   -3.8,   -2.7,   -1.2,    0.1,    0.5,    0.1,   -0.2,   -0.5,   -0.3,   -0.9,   -1.2,   -3.0,   -2.3,   -2.5,   -1.8,   -1.7,   -3.4,   -4.2,  999.0,  999.0,  999.0,  999.0,  999.0,  999.0,   -0.9,   -0.9,  999.0,   -0.8,   -1.0,   -0.8,   -1.0,   -1.2,    6.4,   -1.0,   -0.6,   -0.7,   -1.0,   -1.0,   -0.4,   -0.8,   -0.8,   -0.4,   -0.8,   -0.6,   -0.8,   -0.8,   -1.0,    6.4,   -0.2,   -0.8,   -0.7,   -0.9,   -0.7,   -1.3,   -1.1,   -0.4,   -0.6
2000/12/10 17:30,  -13.8,   -8.2,   -5.2,   -3.2,    0.1,    0.1,    0.1,   -0.3,   -0.1,   -1.0,   -1.1,   -0.7,   -1.1,   -2.0,   -2.2,   -1.4,   -0.9,    1.4,  999.0,  999.0,  999.0,  999.0,  999.0,   -1.6,  999.0,  999.0,  999.0,  999.0,   -0.4,   -0.7,   -1.0,   -1.3,  999.0,   -0.8,  999.0,   -0.9,   -0.8,   -0.9,   -0.9,  999.0,   -1.1,   -1.1,   -1.0,   -1.1,   -0.8,   -0.4,  999.0,   -0.3,   -0.7,   -1.2,   -0.8,   -0.9,   -0.8,   -0.4,   -0.2,   -0.9,   -0.7,   -0.4
2000/12/10 17:40,  -14.3,   -7.2,   -0.4,    1.7,    1.6,    0.6,   -0.2,   -1.2,   -1.0,    0.2,   -0.4,   -0.8,   -2.5,   -3.6,   -3.2,   -2.6,   -1.8,   -1.3,  999.0,  999.0,  999.0,  999.0,  999.0,  999.0,  999.0,  999.0,  999.0,  999.0,   -2.7,  999.0,  999.0,   -0.3,   -0.8,   -0.6,   -1.1,   -1.2,   -1.1,   -1.4,   -1.0,   -0.6,   -0.7,   -0.7,   -0.6,   -0.7,   -0.4,    0.2,   -0.9,   -0.8,   -0.5,    0.2,   -0.6,   -1.3,   -0.5,   -0.6,   -0.6,   -0.2,  999.0,   -0.8
2000/12/10 17:50,  -18.6,  -11.6,   -5.0,   -0.4,    1.3,    1.0,    0.4,   -0.1,    0.2,   -0.2,   -0.4,   -0.3,   -1.8,   -2.3,   -1.8,   -1.8,   -0.4,   -0.4,    4.3,  999.0,  999.0,  999.0,  999.0,  999.0,  999.0,  999.0,  999.0,  999.0,  999.0,  999.0,  999.0,  999.0,   -0.7,   -0.7,   -0.6,   -1.1,  999.0,   -0.8,   -1.0,   -1.0,   -0.5,   -1.2,   -0.6,   -0.4,   -0.3,    0.1,   -0.1,    0.0,   -0.8,   -0.3,   -0.6,   -0.4,  999.0,   -0.5,   -0.7,   -1.1,  999.0,   -0.5
2000/12/10 18:00,  -13.3,   -3.3,   -1.7,   -0.6,    0.9,    1.0,    0.4,   -0.2,   -0.4,   -0.5,  999.0,   -0.3,   -0.4,  999.0,   -1.0,   -0.7,   -0.5,    0.7,  999.0,  999.0,  999.0,  999.0,  999.0,  999.0,  999.0,  999.0,  999.0,  999.0,  999.0,  999.0,   -4.1,   -2.1,  999.0,  999.0,  999.0,  999.0,  999.0,   -0.7,   -1.3,  999.0,  999.0,   -0.0,  999.0,  999.0,   -0.1,   -1.2,  999.0,  999.0,   -0.6,  999.0,  999.0,  999.0,  999.0,  999.0,   -0.6,   -1.0,  999.0,  999.0
2000/12/10 18:10,  -10.0,   -2.7,    0.1,    1.5,    1.0,    1.0,    0.5,    1.5,    2.1,    1.9,   -0.6,   -1.2,  999.0,   -0.9,   -1.3,   -2.0,   -1.8,   -1.4,   -1.5,  999.0,  999.0,  999.0,  999.0,  999.0,  999.0,  999.0,  999.0,  999.0,  999.0,  999.0,   -6.4,   -5.6,   -4.1,   -4.8,   -3.3,   -2.2,   -1.8,    0.1,   -0.6,   -1.6,  999.0,   -0.4,   -0.4,   -0.4,   -1.2,   -0.7,   -0.3,   -0.7,   -0.4,   -0.8,   -0.8,   -0.8,   -1.2,   -0.9,   -0.6,   -0.1,   -0.6,  999.0
2000/12/10 18:20,  -10.9,   -1.0,   -0.7,    1.3,    1.9,    1.4,    0.7,    0.6,    0.3,   -0.9,   -0.8,    0.0,   -0.4,   -0.5,   -0.9,   -2.4,   -1.5,   -0.8,    0.2,  999.0,  999.0,  999.0,  999.0,  999.0,  999.0,  999.0,  999.0,  999.0,  999.0,  999.0,  999.0,  999.0,   -4.3,   -3.9,   -2.8,   -3.4,   -2.3,   -0.3,   -1.7,   -1.3,   -0.9,   -0.3,   -0.3,   -0.6,   -0.6,   -0.8,  999.0,  999.0,   -0.9,   -0.4,   -0.5,   -0.5,   -1.3,   -0.6,   -1.0,   -0.1,   -0.8,   -0.6
2000/12/10 18:30,  -16.5,   -8.8,   -4.4,   -1.5,    0.8,    1.3,    1.5,    1.0,    0.1,   -0.7,   -0.3,   -0.2,    0.5,    0.1,    0.3,   -0.6,   -0.9,   -1.3,   -3.1,   -3.4,   -4.0,   -3.4,  999.0,  999.0,  999.0,  999.0,  999.0,  999.0,  999.0,  999.0,  999.0,  999.0,   -5.5,   -4.6,   -2.8,   -2.1,   -0.9,   -0.4,   -0.7,   -0.8,   -0.5,   -0.7,   -0.1,   -0.1,   -0.9,   -0.9,   -1.4,   -1.4,   -0.4,   -0.4,   -1.3,   -0.5,   -1.0,   -0.2,   -0.6,  999.0,   -0.8,  999.0
2000/12/10 18:40,   -5.7,   -2.1,    0.8,    1.3,    0.6,    0.8,    1.0,    1.1,    0.2,   -1.3,    1.0,   -0.6,   -0.9,    0.1,    1.8,    1.0,    0.8,    2.6,    0.7,    2.1,    0.5,   -1.2,  999.0,  999.0,  999.0,  999.0,  -14.5,  999.0,  -12.5,  -11.4,  -10.1,  999.0,   -7.7,   -6.9,  999.0,  999.0,   -3.1,   -2.5,   -1.4,   -1.1,  999.0,  999.0,  999.0,   -1.7,  999.0,  999.0,  999.0,  999.0,  999.0,  999.0,  999.0,  999.0,  999.0,  999.0,  999.0,  999.0,  999.0,  999.0
2000/12/10 18:50,   -1.6,    0.1,    0.3,   -0.1,    0.2,    0.6,    0.1,   -0.4,    0.1,    0.1,    0.8,    1.5,    0.2,   -0.4,    0.2,   -0.1,   -0.2,   -0.8,   -1.6,   -1.8,   -1.4,   -1.9,    1.8,  999.0,  999.0,  999.0,   27.7,  999.0,  999.0,  999.0,  999.0,  999.0,   -6.3,   -3.1,   -4.7,   -4.3,   -1.9,   -0.4,  999.0,    0.4,   -1.3,   20.5,   -0.5,   10.1,   10.1,   -0.4,   -0.2,    9.7,  999.0,   -1.3,  999.0,   -0.6,   -0.8,   -0.2,    9.7,   -0.3,   -0.7,    9.3
2000/12/10 19:00,  -12.3,   -8.2,   -4.7,   -3.4,   -1.8,   -1.0,   -0.4,   -1.3,   -1.1,   -0.9,   -2.3,   -2.3,   -3.6,   -3.8,   -2.5,   -0.9,   -0.4,    0.6,    0.6,   -2.0,    0.6,   -0.3,   -0.8,   -0.9,   -0.3,   -3.9,  999.0,   -0.9,  999.0,    0.7,    1.5,   -1.2,    9.4,   -4.6,   -0.8,  999.0,    1.9,   -2.4,   -4.4,   -0.4,   -4.7,   -1.0,   -0.5,   16.9,    8.8,  999.0,  999.0,   -0.8,   -0.7,   -1.1,  999.0,   -0.5,  999.0,  999.0,  999.0,   -0.6,   -0.6,   -1.0
2000/12/10 19:10,  -10.9,    0.3,    1.5,   -1.7,   -4.5,   -3.6,   -4.1,   -4.3,   -4.2,   -4.5,   -4.6,   -5.1,   -5.2,   -3.7,   -3.6,   -1.4,   -1.9,   -0.7,   -1.3,   -3.0,   -3.0,   -3.3,   -2.8,   -2.7,   -2.8,   -6.4,   -0.5,   -6.1,   -4.4,   -5.5,   -6.6,   -6.9,   -6.3,   -4.9,   -3.6,   -2.7,   -0.8,   -0.4,   -0.2,    5.8,    7.1,  999.0,    5.7,   18.4,   20.4,  999.0,   -0.4,   -0.9,  999.0,  999.0,  999.0,  999.0,   -1.8,  999.0,  -14.4,  -14.6,  -18.3,  999.0
2000/12/10 19:20,  999.0,    3.6,    2.9,    1.5,    0.0,   -1.0,   -2.0,   -3.3,   -3.8,   -3.9,   -5.3,   -5.5,   -5.4,   -4.7,   -4.2,   -3.8,   -3.4,   -2.8,   -2.3,   -1.1,   -1.1,   -1.2,   -0.8,   -1.1,   -2.1,   -2.5,   -2.5,   -1.8,   -2.9,   -5.0,   -6.0,   -4.3,   -5.8,   -5.9,   -6.0,   -8.5,   -7.2,   -5.4,   -8.7,  999.0,   -8.7,  999.0,  999.0,  999.0,  999.0,  999.0,  999.0,  999.0,  999.0,  -19.8,  999.0,  999.0,  999.0,  -22.8,  999.0,  999.0,  999.0,  999.0
2000/12/10 19:30,  999.0,    4.4,    2.2,   -4.6,   -4.1,   -3.8,   -3.4,   -6.5,   -4.4,   -3.0,   -5.0,   -5.7,   -6.3,   -6.1,   -7.1,   -6.5,   -6.7,   -4.6,   -1.7,   -2.2,   -2.9,   -2.5,   -2.8,   -5.2,   -5.2,   -4.8,   -5.7,   -6.7,   -7.9,   -7.8,   -7.2,   -8.3,  -13.3,  -13.2,  -12.7,  999.0,   -1.4,  999.0,  999.0,  999.0,  999.0,    0.9,    3.0,    2.2,  999.0,  999.0,  999.0,   -0.1,  999.0,  999.0,  999.0,    3.1,    0.5,    1.5,  999.0,  999.0,  999.0,  -19.6
2000/12/10 19:40,  999.0,    3.3,    2.3,    2.5,    3.1,    2.6,    1.2,    2.3,   -1.3,   -3.0,   -3.3,   -3.3,   -5.4,   -7.4,   -8.0,  999.0,   -6.1,   -4.0,   -6.7,   -6.5,   -3.6,   -0.7,   -1.0,   -0.2,   -1.5,    0.5,    4.4,   -0.3,   -2.7,   -5.8,   -3.3,    6.2,    1.2,  999.0,  999.0,  999.0,  999.0,  999.0,  999.0,  999.0,  999.0,  999.0,  999.0,  999.0,  999.0,  999.0,  999.0,  999.0,  999.0,  999.0,  999.0,  999.0,  999.0,  999.0,  999.0,  999.0,  999.0,  999.0
2000/12/10 19:50,  999.0,    2.0,    0.8,    1.2,    0.5,    1.3,    1.2,   -0.3,   -3.3,   -4.5,   -5.9,  -10.0,   -7.3,   -3.6,   -4.7,  999.0,  999.0,   -5.4,   -4.9,   -5.7,   -4.9,   -4.4,   -3.3,  999.0,   -3.5,   -5.3,  999.0,  999.0,  999.0,  999.0,  999.0,  999.0,  999.0,  999.0,   -4.6,  999.0,   -4.7,  999.0,  999.0,  999.0,  999.0,  999.0,  999.0,  999.0,  999.0,  999.0,  999.0,  999.0,  999.0,  999.0,  999.0,  999.0,  999.0,  999.0,  999.0,  999.0,  999.0,  999.0
2000/12/10 20:00,  999.0,    3.7,    1.5,    1.8,    1.9,    2.0,    2.7,    1.3,    0.1,   -2.7,   -3.7,   -4.0,   -4.3,   -7.9,   -4.5,  999.0,   -4.8,  999.0,   -3.0,   -1.4,   -1.7,  999.0,   -4.7,   -5.1,  999.0,  999.0,   -3.3,   -1.1,   -1.0,   -2.5,  999.0,  999.0,  999.0,  999.0,  999.0,   -1.5,  999.0,   -2.8,  999.0,  999.0,  999.0,  999.0,  999.0,  999.0,  999.0,  999.0,  999.0,  999.0,  999.0,  999.0,  999.0,  999.0,  999.0,  999.0,  999.0,  999.0,  999.0,  999.0
2000/12/10 20:10,  999.0,    1.8,    1.9,    1.3,    2.4,    1.5,    1.3,  999.0,    0.3,   -3.4,   -4.2,   -6.3,   -5.6,   -6.8,   -5.9,   -5.1,  999.0,  999.0,  999.0,  999.0,  999.0,  999.0,  999.0,  999.0,  999.0,  999.0,   -4.3,   -1.6,  999.0,  999.0,  999.0,   -2.4,  999.0,  999.0,  999.0,  999.0,  999.0,  999.0,  999.0,  999.0,  999.0,  999.0,  999.0,  999.0,  999.0,  999.0,  999.0,  999.0,  999.0,  999.0,  999.0,  999.0,  999.0,  999.0,  999.0,  999.0,  999.0,  999.0
2000/12/10 20:20,  999.0,    2.3,    3.1,    4.1,    1.9,    0.0,   -0.7,    0.9,   -2.6,   -3.7,   -4.9,   -6.0,   -5.4,   -7.2,   -5.7,  999.0,  999.0,  999.0,  999.0,  999.0,   -2.0,   -2.5,  999.0,  999.0,  999.0,  999.0,  999.0,  999.0,   -2.3,  999.0,  999.0,  999.0,  999.0,  999.0,  999.0,   -8.4,   -6.4,   -4.9,   -3.2,   -2.4,   -2.8,   -2.1,   -3.4,   -2.9,   -1.2,  999.0,  999.0,  999.0,  999.0,  999.0,  999.0,  999.0,  999.0,  999.0,  999.0,  999.0,  999.0,  999.0
2000/12/10 20:30,  999.0,   -0.3,    0.9,    0.9,    2.7,    2.5,    1.2,   -2.1,   -2.1,   -3.7,   -5.7,   -6.6,   -7.0,   -5.9,  999.0,  999.0,  999.0,   -3.5,  999.0,  999.0,  999.0,  999.0,  999.0,  999.0,  999.0,  999.0,  999.0,  999.0,  999.0,  999.0,  999.0,   -2.9,   -4.1,  999.0,  999.0,  999.0,  999.0,  999.0,  999.0,  999.0,  999.0,  999.0,  999.0,  999.0,  999.0,  999.0,  999.0,  999.0,  999.0,  999.0,  999.0,  999.0,  999.0,  999.0,  999.0,  999.0,  999.0,  999.0
2000/12/10 20:40,  999.0,    2.8,   -0.1,    0.5,   -0.2,   -0.9,   -0.7,   -1.6,   -2.4,   -2.7,   -4.8,   -5.3,   -5.0,   -5.5,   -7.5,  999.0,  999.0,  999.0,  999.0,  999.0,  999.0,   -4.6,  999.0,    6.8,   14.8,  999.0,  999.0,  999.0,  999.0,   -7.2,  -24.7,  -25.4,  -22.8,  999.0,   -1.7,  999.0,    1.3,  999.0,    1.1,  999.0,  999.0,  999.0,  999.0,  999.0,  999.0,    0.6,  999.0,    0.7,  999.0,    1.2,  999.0,    1.1,    1.2,    1.2,  999.0,    0.1,  999.0,    0.6
2000/12/10 20:50,  999.0,  999.0,   -0.6,   -0.0,   -0.4,   -2.4,   -2.3,   -1.5,   -1.2,   -2.6,   -3.4,   -5.0,   -6.5,   -4.5,   -5.0,   -3.8,  999.0,  999.0,  999.0,  999.0,  999.0,   -2.2,  999.0,  999.0,  999.0,  999.0,  999.0,  999.0,  999.0,  999.0,  999.0,  999.0,  999.0,  999.0,  999.0,  999.0,   14.1,   14.1,   23.8,  999.0,    1.1,    1.0,  999.0,    0.6,  999.0,    0.9,    1.8,    0.8,    1.3,    1.2,  999.0,  999.0,    0.9,    0.6,  999.0,  999.0,    0.2,  999.0
2000/12/10 21:00,  999.0,    0.7,    3.1,    0.7,   -1.0,   -0.2,   -0.7,   -0.3,   -2.0,   -2.5,   -1.7,   -3.3,   -4.9,   -6.4,   -4.8,   -5.4,  999.0,  999.0,  999.0,  999.0,  999.0,  999.0,  999.0,  999.0,  999.0,  999.0,  999.0,  999.0,  999.0,  999.0,  999.0,  999.0,  999.0,  999.0,  999.0,  999.0,  999.0,  999.0,  999.0,  999.0,  999.0,  999.0,  999.0,  999.0,  999.0,  999.0,  999.0,  999.0,  999.0,  999.0,  999.0,  999.0,  999.0,  999.0,  999.0,  999.0,  999.0,  999.0
2000/12/10 21:10,  999.0,    2.9,    0.5,   -0.7,   -0.3,   -1.3,   -0.6,   -1.7,    1.6,   -0.1,   -1.8,   -2.0,   -3.9,   -5.2,   -5.1,   -5.3,  999.0,  999.0,  999.0,  999.0,  999.0,    1.2,  999.0,  999.0,  999.0,  999.0,  999.0,  999.0,  999.0,  999.0,  999.0,  999.0,  999.0,  999.0,  999.0,  999.0,  999.0,  999.0,  999.0,  999.0,  999.0,  999.0,  999.0,  999.0,  999.0,  999.0,  999.0,  999.0,  999.0,  999.0,  999.0,  999.0,  999.0,  999.0,  999.0,  999.0,  999.0,  999.0
2000/12/10 21:20,  999.0,    1.8,    0.2,    0.2,   -0.9,   -3.1,   -2.3,   -2.0,   -1.3,   -1.5,  999.0,  999.0,   -2.5,   -3.6,   -4.2,  999.0,  999.0,  999.0,  999.0,   -3.0,  999.0,  999.0,  999.0,  999.0,  999.0,  999.0,  999.0,  999.0,  999.0,  999.0,  999.0,  999.0,  999.0,  999.0,  999.0,  999.0,  999.0,  999.0,  999.0,  999.0,  999.0,  999.0,  999.0,  999.0,  999.0,  999.0,  999.0,  999.0,  999.0,  999.0,  999.0,  999.0,  999.0,  999.0,  999.0,  999.0,  999.0,  999.0
2000/12/10 21:30,  999.0,    0.6,    0.7,   -0.1,   -0.9,   -1.9,   -1.1,    0.8,    1.0,    0.9,    0.2,   -1.8,   -2.8,   -4.5,    0.2,  999.0,  999.0,  999.0,  999.0,  999.0,  999.0,  999.0,   17.0,  999.0,  999.0,  999.0,  999.0,  999.0,  999.0,  999.0,  999.0,  999.0,  999.0,  999.0,  999.0,  999.0,  999.0,  999.0,  999.0,  999.0,  999.0,  999.0,  999.0,  999.0,  999.0,  999.0,  999.0,  999.0,  999.0,  999.0,  999.0,  999.0,  999.0,  999.0,  999.0,  999.0,  999.0,  999.0
2000/12/10 21:40,  999.0,    1.3,    2.1,   -1.3,   -2.9,   -0.8,   -0.3,    1.0,    1.5,    2.8,    1.8,    3.0,   -1.9,  999.0,  999.0,  999.0,  999.0,  999.0,  999.0,  999.0,  999.0,  999.0,   28.9,  999.0,   29.4,  999.0,  999.0,  999.0,  999.0,  999.0,  999.0,  999.0,  999.0,  999.0,  999.0,  999.0,  999.0,  999.0,  999.0,  999.0,  999.0,  999.0,  999.0,  999.0,  999.0,  999.0,  999.0,  999.0,  999.0,  999.0,  999.0,  999.0,  999.0,  999.0,  999.0,  999.0,  999.0,  999.0
2000/12/10 21:50,  999.0,    1.4,    0.8,   -2.0,   -0.2,   -1.2,   -0.6,    0.9,    2.9,    1.6,    1.5,    1.1,   -1.3,  999.0,  999.0,  999.0,  999.0,  999.0,  999.0,  999.0,  999.0,  999.0,  999.0,   25.5,   27.0,   28.0,   29.9,  999.0,  999.0,  999.0,  999.0,  999.0,  999.0,  999.0,  999.0,  999.0,  999.0,  999.0,  999.0,  999.0,  999.0,  999.0,  999.0,  999.0,  999.0,  999.0,  999.0,  999.0,  999.0,  999.0,  999.0,  999.0,  999.0,  999.0,  999.0,  999.0,  999.0,  999.0
2000/12/10 22:00,  999.0,    0.6,    2.1,    0.8,    0.8,   -1.1,   -0.4,    1.3,    1.7,    2.5,    0.5,   -0.7,   -0.5,   -2.7,   -3.1,  999.0,  999.0,  999.0,  999.0,  999.0,  999.0,  999.0,   29.8,  999.0,  999.0,  999.0,  999.0,  999.0,  999.0,  999.0,  999.0,  999.0,  999.0,  999.0,  999.0,  999.0,  999.0,  999.0,  999.0,  999.0,  999.0,  999.0,  999.0,  999.0,  999.0,  999.0,  999.0,  999.0,  999.0,  999.0,  999.0,  999.0,  999.0,  999.0,  999.0,  999.0,  999.0,  999.0
2000/12/10 22:10,  999.0,    1.6,    1.1,    0.9,    1.4,   -0.0,    0.4,    1.0,  999.0,  999.0,    8.6,    0.4,  999.0,   -1.2,    0.0,    0.2,   -1.5,  999.0,  999.0,  999.0,  999.0,  999.0,  999.0,  999.0,  999.0,  999.0,  999.0,  999.0,  999.0,  999.0,  999.0,  999.0,  999.0,  999.0,  999.0,  999.0,  999.0,  999.0,  999.0,  999.0,  999.0,  999.0,  999.0,  999.0,  999.0,  999.0,  999.0,  999.0,  999.0,  999.0,  999.0,  999.0,  999.0,  999.0,  999.0,  999.0,  999.0,  999.0
2000/12/10 22:20,  999.0,    1.2,    0.3,    0.2,    1.5,    0.9,    1.0,    4.0,  999.0,   10.5,  999.0,    0.3,  999.0,  999.0,  999.0,  999.0,  999.0,  999.0,  999.0,   22.3,  999.0,  -14.0,  999.0,  999.0,  999.0,  999.0,    1.1,  999.0,  999.0,  999.0,  999.0,    1.1,  999.0,  999.0,  -11.9,  -29.6,  999.0,  999.0,    0.6,    1.0,  999.0,    0.6,  999.0,    3.9,  999.0,   16.7,  999.0,  -12.8,  999.0,  999.0,  999.0,  999.0,  999.0,  999.0,   19.6,  999.0,  999.0,  999.0
2000/12/10 22:30,  999.0,    2.2,    1.5,   -1.1,   -0.0,    1.2,    3.1,    6.3,    2.8,  999.0,    0.9,    0.6,  999.0,  999.0,  999.0,  999.0,   20.6,  999.0,  999.0,  999.0,  999.0,   21.2,   26.9,   24.2,  999.0,   26.2,  999.0,  999.0,  999.0,  999.0,  999.0,  999.0,  999.0,  999.0,  999.0,  999.0,  999.0,  999.0,  999.0,  999.0,  999.0,  999.0,  999.0,  999.0,  999.0,  999.0,  999.0,  999.0,  999.0,  999.0,  999.0,  999.0,  999.0,  999.0,  999.0,  999.0,  999.0,  999.0
2000/12/10 22:40,  999.0,    2.7,    0.5,    1.0,    1.3,    2.8,    1.8,    2.7,   -0.3,    6.3,    2.0,    0.8,  999.0,   19.9,   21.4,   11.9,   12.8,   25.4,   18.0,  999.0,  999.0,    3.2,    8.9,   13.6,  999.0,  999.0,   18.0,  999.0,  999.0,  999.0,  999.0,  999.0,  999.0,  999.0,  999.0,   17.0,  999.0,  999.0,  999.0,  999.0,  999.0,  999.0,  999.0,   -0.9,  999.0,  999.0,  999.0,   -0.7,  999.0,    0.3,   -0.7,  999.0,   20.5,  999.0,  999.0,  999.0,   20.4,   20.4
2000/12/10 22:50,  999.0,  999.0,  999.0,    0.5,    0.9,    1.3,  999.0,    4.6,    2.6,  999.0,  999.0,  999.0,   21.1,   21.2,   21.4,   21.4,   21.7,   22.5,   24.9,  999.0,   25.6,  999.0,  999.0,  999.0,  999.0,  999.0,  999.0,  999.0,  999.0,  999.0,  999.0,  999.0,  999.0,  999.0,  999.0,  999.0,  999.0,  999.0,  999.0,  999.0,  999.0,  999.0,  999.0,  999.0,  999.0,  999.0,  999.0,  999.0,  999.0,  999.0,  999.0,  999.0,  999.0,  999.0,  999.0,  999.0,  999.0,  999.0
2000/12/10 23:00,  999.0,   -1.1,   -0.8,    1.1,    2.1,  999.0,    3.2,    3.0,    1.4,    0.8,    2.3,    7.7,   12.0,   21.7,   13.0,    8.6,    8.0,    8.8,    9.8,   24.0,   28.0,  999.0,  999.0,  -10.0,   -8.5,  999.0,  999.0,   -3.2,   -1.1,  999.0,  999.0,  999.0,  999.0,  999.0,  999.0,   -1.1,   -1.1,  999.0,  999.0,   -0.2,   -0.8,  999.0,  999.0,  999.0,   -1.2,  999.0,  999.0,   -0.5,  999.0,  999.0,   -0.9,  999.0,  999.0,  999.0,  999.0,  999.0,   -0.2,  999.0
2000/12/10 23:10,  999.0,   -0.7,    0.5,    0.8,    3.1,    3.7,    4.3,    4.2,    2.1,    1.0,    1.9,    3.0,    2.5,    2.6,    3.2,    2.7,    2.6,    8.6,    5.5,   23.6,   22.1,   25.7,   24.8,  999.0,  999.0,  999.0,  999.0,  999.0,  999.0,  999.0,  999.0,  999.0,  999.0,  999.0,   11.8,  999.0,  999.0,  999.0,  999.0,  999.0,  999.0,  999.0,  999.0,  999.0,  999.0,  999.0,  999.0,  999.0,  999.0,  999.0,  999.0,  999.0,  999.0,  999.0,  999.0,  999.0,  999.0,  999.0
2000/12/10 23:20,  999.0,   -0.4,    0.3,    1.1,    2.1,    2.0,    2.2,    1.9,    1.7,    1.9,    1.8,    1.7,    2.4,    4.3,    3.9,    3.7,    3.7,    2.3,    2.9,  999.0,  999.0,  999.0,    6.2,  999.0,  999.0,  999.0,   29.0,  999.0,  999.0,  999.0,  999.0,  999.0,    8.1,    7.9,   10.0,   12.1,   16.0,  999.0,  999.0,  999.0,  999.0,   14.7,   16.3,  999.0,  999.0,  999.0,  999.0,  999.0,  999.0,  999.0,  999.0,  999.0,  999.0,  999.0,  999.0,  999.0,  999.0,  999.0
2000/12/10 23:30,  999.0,   -0.6,    1.5,    1.4,    1.6,    2.5,    1.7,    2.5,    2.7,    1.3,    1.5,    1.6,    2.3,    2.1,    2.1,    2.0,    2.9,   21.7,  999.0,   21.4,   21.3,  999.0,  999.0,   21.2,  999.0,  999.0,  999.0,  999.0,   29.9,   11.8,  999.0,  999.0,  999.0,  999.0,  999.0,  999.0,  999.0,  999.0,  999.0,  999.0,  999.0,  999.0,  999.0,   25.0,   20.9,   19.1,   24.3,   28.9,  999.0,  999.0,  999.0,  999.0,  999.0,  999.0,  999.0,  999.0,  999.0,  999.0
2000/12/10 23:40,  999.0,    0.5,    1.9,    2.3,    3.1,    2.5,    0.3,   -0.7,    0.2,    1.3,    1.8,    1.5,    1.6,    2.0,    2.0,    8.3,    1.7,  999.0,  999.0,  999.0,   24.7,  999.0,   26.9,   27.7,   29.1,  999.0,  999.0,   27.4,   29.1,  999.0,  999.0,  999.0,  999.0,  999.0,  999.0,  999.0,  999.0,  999.0,  999.0,  999.0,  999.0,  999.0,  999.0,  999.0,  999.0,  999.0,  999.0,  999.0,  999.0,  999.0,  999.0,  999.0,  999.0,  999.0,  999.0,  999.0,  999.0,  999.0
2000/12/10 23:50,  999.0,  -13.1,   -4.8,   -5.1,   -6.8,   -1.3,   -1.6,   -2.0,    0.8,    2.3,    2.2,    1.0,    6.4,    3.2,    3.3,    2.7,  999.0,  999.0,  999.0,  999.0,  999.0,  999.0,   21.6,  999.0,   22.5,  999.0,  -15.5,  999.0,   23.2,  999.0,  999.0,  999.0,  999.0,  999.0,  999.0,  999.0,    0.5,  999.0,    0.4,    1.0,  999.0,  999.0,  999.0,    0.9,    1.2,  999.0,    1.3,  999.0,  999.0,  999.0,  999.0,  999.0,    0.5,   -0.5,    1.4,    0.0,  999.0,    0.1
